<?xml version="1.0" encoding="UTF-8"?>
<gpx xmlns="http://www.topografix.com/GPX/1/1" xmlns:gpsies="http://www.gpsies.com/GPX/1/0" creator="GPSies http://www.gpsies.com - dorot3" version="1.1" xmlns:xsi="http://www.w3.org/2001/XMLSchema-instance" xsi:schemaLocation="http://www.topografix.com/GPX/1/1 http://www.topografix.com/GPX/1/1/gpx.xsd http://www.gpsies.com/GPX/1/0 http://www.gpsies.com/gpsies.xsd">
  <metadata>
    <name>dorot3</name>
    <author>
      <name>igor968</name>
      <link href="http://www.gpsies.com/mapUser.do?username=igor968">
        <text>igor968 on GPSies.com</text>
        <type>GPSiesUserOnWeb</type>
      </link>
    </author>
    <link href="http://www.gpsies.com/map.do?fileId=fqmlxzecmwigppwe">
      <text>dorot3 on GPSies.com</text>
      <type>trackOnWeb</type>
    </link>
    <time>2016-02-25T15:29:59Z</time>
    <extensions>
      <gpsies:property>round trip</gpsies:property>
      <gpsies:trackLengthMeter>28221.405995105026</gpsies:trackLengthMeter>
      <gpsies:totalAscentMeter>266.0</gpsies:totalAscentMeter>
      <gpsies:totalDescentMeter>266.0</gpsies:totalDescentMeter>
      <gpsies:minHeightMeter>69.0</gpsies:minHeightMeter>
      <gpsies:maxHeightMeter>177.0</gpsies:maxHeightMeter>
    </extensions>
  </metadata>
  <trk>
    <name>dorot3 on GPSies.com</name>
    <link href="http://www.gpsies.com/map.do?fileId=fqmlxzecmwigppwe">
      <type>trackOnWeb</type>
    </link>
    <link href="http://www.gpsies.com/charts/fq/map/fqmlxzecmwigppwe_map.png">
      <type>elevationChartUrlMap</type>
    </link>
    <link href="http://www.gpsies.com/charts/fq/mapThumb/fqmlxzecmwigppwe_mapThumb.png">
      <type>elevationChartUrlMapThumb</type>
    </link>
    <link href="http://www.gpsies.com/charts/fq/tab/fqmlxzecmwigppwe_tab.png">
      <type>elevationChartUrlTab</type>
    </link>
    <trkseg>
      <trkpt lat="31.50997740" lon="34.64840050">
        <ele>96.000000</ele>
        <time>2010-01-01T00:00:00Z</time>
      </trkpt>
      <trkpt lat="31.50912670" lon="34.64833610">
        <ele>96.000000</ele>
        <time>2010-01-01T00:00:34Z</time>
      </trkpt>
      <trkpt lat="31.50912000" lon="34.64833000">
        <ele>96.000000</ele>
        <time>2010-01-01T00:00:34Z</time>
      </trkpt>
      <trkpt lat="31.50882000" lon="34.64855000">
        <ele>96.000000</ele>
        <time>2010-01-01T00:00:48Z</time>
      </trkpt>
      <trkpt lat="31.50873000" lon="34.64864000">
        <ele>95.000000</ele>
        <time>2010-01-01T00:00:53Z</time>
      </trkpt>
      <trkpt lat="31.50855000" lon="34.64922000">
        <ele>96.000000</ele>
        <time>2010-01-01T00:01:14Z</time>
      </trkpt>
      <trkpt lat="31.50861000" lon="34.64978000">
        <ele>99.000000</ele>
        <time>2010-01-01T00:01:33Z</time>
      </trkpt>
      <trkpt lat="31.50857000" lon="34.65016000">
        <ele>99.000000</ele>
        <time>2010-01-01T00:01:46Z</time>
      </trkpt>
      <trkpt lat="31.50770000" lon="34.65097000">
        <ele>100.00000</ele>
        <time>2010-01-01T00:02:31Z</time>
      </trkpt>
      <trkpt lat="31.50749000" lon="34.65100000">
        <ele>99.000000</ele>
        <time>2010-01-01T00:02:39Z</time>
      </trkpt>
      <trkpt lat="31.50718000" lon="34.65085000">
        <ele>100.00000</ele>
        <time>2010-01-01T00:02:53Z</time>
      </trkpt>
      <trkpt lat="31.50717000" lon="34.65085000">
        <ele>100.00000</ele>
        <time>2010-01-01T00:02:53Z</time>
      </trkpt>
      <trkpt lat="31.50697000" lon="34.65084000">
        <ele>99.000000</ele>
        <time>2010-01-01T00:03:01Z</time>
      </trkpt>
      <trkpt lat="31.50668000" lon="34.65078000">
        <ele>100.00000</ele>
        <time>2010-01-01T00:03:13Z</time>
      </trkpt>
      <trkpt lat="31.50634000" lon="34.65084000">
        <ele>97.000000</ele>
        <time>2010-01-01T00:03:27Z</time>
      </trkpt>
      <trkpt lat="31.50589000" lon="34.65077000">
        <ele>96.000000</ele>
        <time>2010-01-01T00:03:45Z</time>
      </trkpt>
      <trkpt lat="31.50527000" lon="34.65058000">
        <ele>95.000000</ele>
        <time>2010-01-01T00:04:10Z</time>
      </trkpt>
      <trkpt lat="31.50520000" lon="34.65045000">
        <ele>95.000000</ele>
        <time>2010-01-01T00:04:16Z</time>
      </trkpt>
      <trkpt lat="31.50517000" lon="34.65032000">
        <ele>95.000000</ele>
        <time>2010-01-01T00:04:20Z</time>
      </trkpt>
      <trkpt lat="31.50509000" lon="34.65025000">
        <ele>96.000000</ele>
        <time>2010-01-01T00:04:24Z</time>
      </trkpt>
      <trkpt lat="31.50497000" lon="34.65026000">
        <ele>97.000000</ele>
        <time>2010-01-01T00:04:29Z</time>
      </trkpt>
      <trkpt lat="31.50487000" lon="34.65030000">
        <ele>97.000000</ele>
        <time>2010-01-01T00:04:33Z</time>
      </trkpt>
      <trkpt lat="31.50453000" lon="34.65012000">
        <ele>101.00000</ele>
        <time>2010-01-01T00:04:48Z</time>
      </trkpt>
      <trkpt lat="31.50441000" lon="34.65008000">
        <ele>102.00000</ele>
        <time>2010-01-01T00:04:53Z</time>
      </trkpt>
      <trkpt lat="31.50408000" lon="34.65033000">
        <ele>100.00000</ele>
        <time>2010-01-01T00:05:09Z</time>
      </trkpt>
      <trkpt lat="31.50374000" lon="34.65034000">
        <ele>100.00000</ele>
        <time>2010-01-01T00:05:23Z</time>
      </trkpt>
      <trkpt lat="31.50343000" lon="34.65060000">
        <ele>99.000000</ele>
        <time>2010-01-01T00:05:38Z</time>
      </trkpt>
      <trkpt lat="31.50320000" lon="34.65066000">
        <ele>101.00000</ele>
        <time>2010-01-01T00:05:47Z</time>
      </trkpt>
      <trkpt lat="31.50294000" lon="34.65078000">
        <ele>102.00000</ele>
        <time>2010-01-01T00:05:58Z</time>
      </trkpt>
      <trkpt lat="31.50288000" lon="34.65083000">
        <ele>101.00000</ele>
        <time>2010-01-01T00:06:01Z</time>
      </trkpt>
      <trkpt lat="31.50267000" lon="34.65077000">
        <ele>103.00000</ele>
        <time>2010-01-01T00:06:10Z</time>
      </trkpt>
      <trkpt lat="31.50242000" lon="34.65084000">
        <ele>104.00000</ele>
        <time>2010-01-01T00:06:20Z</time>
      </trkpt>
      <trkpt lat="31.50221000" lon="34.65100000">
        <ele>103.00000</ele>
        <time>2010-01-01T00:06:30Z</time>
      </trkpt>
      <trkpt lat="31.50209000" lon="34.65122000">
        <ele>104.00000</ele>
        <time>2010-01-01T00:06:39Z</time>
      </trkpt>
      <trkpt lat="31.50202000" lon="34.65155000">
        <ele>103.00000</ele>
        <time>2010-01-01T00:06:51Z</time>
      </trkpt>
      <trkpt lat="31.50200000" lon="34.65183000">
        <ele>103.00000</ele>
        <time>2010-01-01T00:07:00Z</time>
      </trkpt>
      <trkpt lat="31.50206000" lon="34.65199000">
        <ele>102.00000</ele>
        <time>2010-01-01T00:07:06Z</time>
      </trkpt>
      <trkpt lat="31.50222000" lon="34.65225000">
        <ele>101.00000</ele>
        <time>2010-01-01T00:07:17Z</time>
      </trkpt>
      <trkpt lat="31.50252000" lon="34.65294000">
        <ele>101.00000</ele>
        <time>2010-01-01T00:07:44Z</time>
      </trkpt>
      <trkpt lat="31.50271000" lon="34.65318000">
        <ele>101.00000</ele>
        <time>2010-01-01T00:07:55Z</time>
      </trkpt>
      <trkpt lat="31.50335000" lon="34.65349000">
        <ele>102.00000</ele>
        <time>2010-01-01T00:08:23Z</time>
      </trkpt>
      <trkpt lat="31.50343000" lon="34.65357000">
        <ele>102.00000</ele>
        <time>2010-01-01T00:08:27Z</time>
      </trkpt>
      <trkpt lat="31.50343000" lon="34.65356000">
        <ele>102.00000</ele>
        <time>2010-01-01T00:08:27Z</time>
      </trkpt>
      <trkpt lat="31.50368000" lon="34.65358000">
        <ele>102.00000</ele>
        <time>2010-01-01T00:08:37Z</time>
      </trkpt>
      <trkpt lat="31.50374000" lon="34.65361000">
        <ele>102.00000</ele>
        <time>2010-01-01T00:08:40Z</time>
      </trkpt>
      <trkpt lat="31.50375000" lon="34.65368000">
        <ele>101.00000</ele>
        <time>2010-01-01T00:08:42Z</time>
      </trkpt>
      <trkpt lat="31.50375000" lon="34.65390000">
        <ele>101.00000</ele>
        <time>2010-01-01T00:08:50Z</time>
      </trkpt>
      <trkpt lat="31.50380000" lon="34.65414000">
        <ele>101.00000</ele>
        <time>2010-01-01T00:08:58Z</time>
      </trkpt>
      <trkpt lat="31.50376000" lon="34.65479000">
        <ele>102.00000</ele>
        <time>2010-01-01T00:09:20Z</time>
      </trkpt>
      <trkpt lat="31.50382000" lon="34.65500000">
        <ele>102.00000</ele>
        <time>2010-01-01T00:09:28Z</time>
      </trkpt>
      <trkpt lat="31.50395000" lon="34.65521000">
        <ele>102.00000</ele>
        <time>2010-01-01T00:09:37Z</time>
      </trkpt>
      <trkpt lat="31.50405000" lon="34.65604000">
        <ele>104.00000</ele>
        <time>2010-01-01T00:10:06Z</time>
      </trkpt>
      <trkpt lat="31.50418000" lon="34.65653000">
        <ele>106.00000</ele>
        <time>2010-01-01T00:10:23Z</time>
      </trkpt>
      <trkpt lat="31.50408000" lon="34.65696000">
        <ele>107.00000</ele>
        <time>2010-01-01T00:10:38Z</time>
      </trkpt>
      <trkpt lat="31.50381000" lon="34.65708000">
        <ele>106.00000</ele>
        <time>2010-01-01T00:10:50Z</time>
      </trkpt>
      <trkpt lat="31.50362000" lon="34.65739000">
        <ele>106.00000</ele>
        <time>2010-01-01T00:11:03Z</time>
      </trkpt>
      <trkpt lat="31.50347000" lon="34.65809000">
        <ele>103.00000</ele>
        <time>2010-01-01T00:11:27Z</time>
      </trkpt>
      <trkpt lat="31.50349000" lon="34.65838000">
        <ele>103.00000</ele>
        <time>2010-01-01T00:11:37Z</time>
      </trkpt>
      <trkpt lat="31.50354000" lon="34.65863000">
        <ele>104.00000</ele>
        <time>2010-01-01T00:11:46Z</time>
      </trkpt>
      <trkpt lat="31.50357000" lon="34.65892000">
        <ele>104.00000</ele>
        <time>2010-01-01T00:11:56Z</time>
      </trkpt>
      <trkpt lat="31.50369000" lon="34.65949000">
        <ele>106.00000</ele>
        <time>2010-01-01T00:12:16Z</time>
      </trkpt>
      <trkpt lat="31.50368000" lon="34.66001000">
        <ele>106.00000</ele>
        <time>2010-01-01T00:12:34Z</time>
      </trkpt>
      <trkpt lat="31.50370000" lon="34.66062000">
        <ele>105.00000</ele>
        <time>2010-01-01T00:12:55Z</time>
      </trkpt>
      <trkpt lat="31.50392000" lon="34.66143000">
        <ele>108.00000</ele>
        <time>2010-01-01T00:13:24Z</time>
      </trkpt>
      <trkpt lat="31.50402000" lon="34.66180000">
        <ele>107.00000</ele>
        <time>2010-01-01T00:13:37Z</time>
      </trkpt>
      <trkpt lat="31.50346000" lon="34.66282000">
        <ele>108.00000</ele>
        <time>2010-01-01T00:14:18Z</time>
      </trkpt>
      <trkpt lat="31.50329000" lon="34.66296000">
        <ele>109.00000</ele>
        <time>2010-01-01T00:14:27Z</time>
      </trkpt>
      <trkpt lat="31.50313000" lon="34.66343000">
        <ele>110.00000</ele>
        <time>2010-01-01T00:14:44Z</time>
      </trkpt>
      <trkpt lat="31.50292000" lon="34.66372000">
        <ele>110.00000</ele>
        <time>2010-01-01T00:14:57Z</time>
      </trkpt>
      <trkpt lat="31.50267000" lon="34.66385000">
        <ele>110.00000</ele>
        <time>2010-01-01T00:15:08Z</time>
      </trkpt>
      <trkpt lat="31.50244000" lon="34.66378000">
        <ele>110.00000</ele>
        <time>2010-01-01T00:15:17Z</time>
      </trkpt>
      <trkpt lat="31.50188000" lon="34.66368000">
        <ele>109.00000</ele>
        <time>2010-01-01T00:15:40Z</time>
      </trkpt>
      <trkpt lat="31.50158000" lon="34.66376000">
        <ele>109.00000</ele>
        <time>2010-01-01T00:15:52Z</time>
      </trkpt>
      <trkpt lat="31.50136000" lon="34.66431000">
        <ele>111.00000</ele>
        <time>2010-01-01T00:16:13Z</time>
      </trkpt>
      <trkpt lat="31.50112000" lon="34.66473000">
        <ele>112.00000</ele>
        <time>2010-01-01T00:16:30Z</time>
      </trkpt>
      <trkpt lat="31.50078000" lon="34.66494000">
        <ele>113.00000</ele>
        <time>2010-01-01T00:16:46Z</time>
      </trkpt>
      <trkpt lat="31.50037000" lon="34.66510000">
        <ele>114.00000</ele>
        <time>2010-01-01T00:17:03Z</time>
      </trkpt>
      <trkpt lat="31.50001000" lon="34.66527000">
        <ele>114.00000</ele>
        <time>2010-01-01T00:17:19Z</time>
      </trkpt>
      <trkpt lat="31.49957000" lon="34.66564000">
        <ele>112.00000</ele>
        <time>2010-01-01T00:17:40Z</time>
      </trkpt>
      <trkpt lat="31.49919000" lon="34.66599000">
        <ele>114.00000</ele>
        <time>2010-01-01T00:18:00Z</time>
      </trkpt>
      <trkpt lat="31.49901000" lon="34.66628000">
        <ele>114.00000</ele>
        <time>2010-01-01T00:18:12Z</time>
      </trkpt>
      <trkpt lat="31.49893000" lon="34.66656000">
        <ele>114.00000</ele>
        <time>2010-01-01T00:18:22Z</time>
      </trkpt>
      <trkpt lat="31.49873000" lon="34.66683000">
        <ele>115.00000</ele>
        <time>2010-01-01T00:18:34Z</time>
      </trkpt>
      <trkpt lat="31.49850000" lon="34.66737000">
        <ele>116.00000</ele>
        <time>2010-01-01T00:18:55Z</time>
      </trkpt>
      <trkpt lat="31.49804000" lon="34.66795000">
        <ele>116.00000</ele>
        <time>2010-01-01T00:19:22Z</time>
      </trkpt>
      <trkpt lat="31.49769000" lon="34.66867000">
        <ele>116.00000</ele>
        <time>2010-01-01T00:19:50Z</time>
      </trkpt>
      <trkpt lat="31.49740000" lon="34.66917000">
        <ele>115.00000</ele>
        <time>2010-01-01T00:20:11Z</time>
      </trkpt>
      <trkpt lat="31.49706000" lon="34.66967000">
        <ele>116.00000</ele>
        <time>2010-01-01T00:20:33Z</time>
      </trkpt>
      <trkpt lat="31.49685000" lon="34.66973000">
        <ele>115.00000</ele>
        <time>2010-01-01T00:20:41Z</time>
      </trkpt>
      <trkpt lat="31.49660000" lon="34.66973000">
        <ele>114.00000</ele>
        <time>2010-01-01T00:20:51Z</time>
      </trkpt>
      <trkpt lat="31.49637000" lon="34.66967000">
        <ele>114.00000</ele>
        <time>2010-01-01T00:21:01Z</time>
      </trkpt>
      <trkpt lat="31.49608000" lon="34.66964000">
        <ele>115.00000</ele>
        <time>2010-01-01T00:21:12Z</time>
      </trkpt>
      <trkpt lat="31.49583000" lon="34.66978000">
        <ele>118.00000</ele>
        <time>2010-01-01T00:21:23Z</time>
      </trkpt>
      <trkpt lat="31.49560000" lon="34.67001000">
        <ele>118.00000</ele>
        <time>2010-01-01T00:21:36Z</time>
      </trkpt>
      <trkpt lat="31.49534000" lon="34.67021000">
        <ele>118.00000</ele>
        <time>2010-01-01T00:21:48Z</time>
      </trkpt>
      <trkpt lat="31.49523000" lon="34.67053000">
        <ele>118.00000</ele>
        <time>2010-01-01T00:22:00Z</time>
      </trkpt>
      <trkpt lat="31.49512000" lon="34.67069000">
        <ele>121.00000</ele>
        <time>2010-01-01T00:22:07Z</time>
      </trkpt>
      <trkpt lat="31.49488000" lon="34.67098000">
        <ele>122.00000</ele>
        <time>2010-01-01T00:22:21Z</time>
      </trkpt>
      <trkpt lat="31.49483000" lon="34.67138000">
        <ele>120.00000</ele>
        <time>2010-01-01T00:22:34Z</time>
      </trkpt>
      <trkpt lat="31.49463000" lon="34.67219000">
        <ele>120.00000</ele>
        <time>2010-01-01T00:23:03Z</time>
      </trkpt>
      <trkpt lat="31.49469000" lon="34.67264000">
        <ele>117.00000</ele>
        <time>2010-01-01T00:23:19Z</time>
      </trkpt>
      <trkpt lat="31.49469000" lon="34.67263000">
        <ele>118.00000</ele>
        <time>2010-01-01T00:23:19Z</time>
      </trkpt>
      <trkpt lat="31.49465000" lon="34.67290000">
        <ele>117.00000</ele>
        <time>2010-01-01T00:23:28Z</time>
      </trkpt>
      <trkpt lat="31.49458000" lon="34.67315000">
        <ele>118.00000</ele>
        <time>2010-01-01T00:23:37Z</time>
      </trkpt>
      <trkpt lat="31.49459000" lon="34.67341000">
        <ele>120.00000</ele>
        <time>2010-01-01T00:23:46Z</time>
      </trkpt>
      <trkpt lat="31.49450000" lon="34.67383000">
        <ele>125.00000</ele>
        <time>2010-01-01T00:24:01Z</time>
      </trkpt>
      <trkpt lat="31.49445000" lon="34.67401000">
        <ele>127.00000</ele>
        <time>2010-01-01T00:24:07Z</time>
      </trkpt>
      <trkpt lat="31.49447000" lon="34.67417000">
        <ele>128.00000</ele>
        <time>2010-01-01T00:24:13Z</time>
      </trkpt>
      <trkpt lat="31.49443000" lon="34.67446000">
        <ele>128.00000</ele>
        <time>2010-01-01T00:24:23Z</time>
      </trkpt>
      <trkpt lat="31.49420000" lon="34.67530000">
        <ele>127.00000</ele>
        <time>2010-01-01T00:24:53Z</time>
      </trkpt>
      <trkpt lat="31.49391000" lon="34.67530000">
        <ele>123.00000</ele>
        <time>2010-01-01T00:25:05Z</time>
      </trkpt>
      <trkpt lat="31.49375000" lon="34.67557000">
        <ele>122.00000</ele>
        <time>2010-01-01T00:25:16Z</time>
      </trkpt>
      <trkpt lat="31.49348000" lon="34.67625000">
        <ele>123.00000</ele>
        <time>2010-01-01T00:25:42Z</time>
      </trkpt>
      <trkpt lat="31.49345000" lon="34.67653000">
        <ele>124.00000</ele>
        <time>2010-01-01T00:25:51Z</time>
      </trkpt>
      <trkpt lat="31.49342000" lon="34.67674000">
        <ele>125.00000</ele>
        <time>2010-01-01T00:25:58Z</time>
      </trkpt>
      <trkpt lat="31.49335000" lon="34.67685000">
        <ele>125.00000</ele>
        <time>2010-01-01T00:26:03Z</time>
      </trkpt>
      <trkpt lat="31.49325000" lon="34.67705000">
        <ele>124.00000</ele>
        <time>2010-01-01T00:26:11Z</time>
      </trkpt>
      <trkpt lat="31.49315000" lon="34.67738000">
        <ele>125.00000</ele>
        <time>2010-01-01T00:26:23Z</time>
      </trkpt>
      <trkpt lat="31.49314000" lon="34.67762000">
        <ele>127.00000</ele>
        <time>2010-01-01T00:26:31Z</time>
      </trkpt>
      <trkpt lat="31.49323000" lon="34.67785000">
        <ele>129.00000</ele>
        <time>2010-01-01T00:26:40Z</time>
      </trkpt>
      <trkpt lat="31.49322000" lon="34.67801000">
        <ele>129.00000</ele>
        <time>2010-01-01T00:26:45Z</time>
      </trkpt>
      <trkpt lat="31.49317000" lon="34.67812000">
        <ele>129.00000</ele>
        <time>2010-01-01T00:26:50Z</time>
      </trkpt>
      <trkpt lat="31.49315000" lon="34.67832000">
        <ele>130.00000</ele>
        <time>2010-01-01T00:26:56Z</time>
      </trkpt>
      <trkpt lat="31.49317000" lon="34.67862000">
        <ele>129.00000</ele>
        <time>2010-01-01T00:27:07Z</time>
      </trkpt>
      <trkpt lat="31.49322000" lon="34.67894000">
        <ele>128.00000</ele>
        <time>2010-01-01T00:27:18Z</time>
      </trkpt>
      <trkpt lat="31.49330000" lon="34.67913000">
        <ele>129.00000</ele>
        <time>2010-01-01T00:27:25Z</time>
      </trkpt>
      <trkpt lat="31.49366000" lon="34.67961000">
        <ele>132.00000</ele>
        <time>2010-01-01T00:27:47Z</time>
      </trkpt>
      <trkpt lat="31.49370000" lon="34.67980000">
        <ele>133.00000</ele>
        <time>2010-01-01T00:27:54Z</time>
      </trkpt>
      <trkpt lat="31.49370000" lon="34.67979000">
        <ele>133.00000</ele>
        <time>2010-01-01T00:27:54Z</time>
      </trkpt>
      <trkpt lat="31.49368000" lon="34.67987000">
        <ele>134.00000</ele>
        <time>2010-01-01T00:27:57Z</time>
      </trkpt>
      <trkpt lat="31.49347000" lon="34.67988000">
        <ele>136.00000</ele>
        <time>2010-01-01T00:28:05Z</time>
      </trkpt>
      <trkpt lat="31.49331000" lon="34.67978000">
        <ele>135.00000</ele>
        <time>2010-01-01T00:28:12Z</time>
      </trkpt>
      <trkpt lat="31.49307000" lon="34.67978000">
        <ele>134.00000</ele>
        <time>2010-01-01T00:28:22Z</time>
      </trkpt>
      <trkpt lat="31.49288000" lon="34.67982000">
        <ele>134.00000</ele>
        <time>2010-01-01T00:28:30Z</time>
      </trkpt>
      <trkpt lat="31.49278000" lon="34.67991000">
        <ele>135.00000</ele>
        <time>2010-01-01T00:28:35Z</time>
      </trkpt>
      <trkpt lat="31.49269000" lon="34.68009000">
        <ele>136.00000</ele>
        <time>2010-01-01T00:28:42Z</time>
      </trkpt>
      <trkpt lat="31.49255000" lon="34.68028000">
        <ele>135.00000</ele>
        <time>2010-01-01T00:28:51Z</time>
      </trkpt>
      <trkpt lat="31.49242000" lon="34.68063000">
        <ele>136.00000</ele>
        <time>2010-01-01T00:29:04Z</time>
      </trkpt>
      <trkpt lat="31.49230000" lon="34.68074000">
        <ele>136.00000</ele>
        <time>2010-01-01T00:29:10Z</time>
      </trkpt>
      <trkpt lat="31.49225000" lon="34.68083000">
        <ele>137.00000</ele>
        <time>2010-01-01T00:29:13Z</time>
      </trkpt>
      <trkpt lat="31.49216000" lon="34.68092000">
        <ele>136.00000</ele>
        <time>2010-01-01T00:29:18Z</time>
      </trkpt>
      <trkpt lat="31.49208000" lon="34.68117000">
        <ele>136.00000</ele>
        <time>2010-01-01T00:29:27Z</time>
      </trkpt>
      <trkpt lat="31.49208000" lon="34.68128000">
        <ele>136.00000</ele>
        <time>2010-01-01T00:29:31Z</time>
      </trkpt>
      <trkpt lat="31.49222000" lon="34.68143000">
        <ele>136.00000</ele>
        <time>2010-01-01T00:29:39Z</time>
      </trkpt>
      <trkpt lat="31.49235000" lon="34.68151000">
        <ele>137.00000</ele>
        <time>2010-01-01T00:29:44Z</time>
      </trkpt>
      <trkpt lat="31.49296000" lon="34.68227000">
        <ele>139.00000</ele>
        <time>2010-01-01T00:30:20Z</time>
      </trkpt>
      <trkpt lat="31.49307000" lon="34.68239000">
        <ele>140.00000</ele>
        <time>2010-01-01T00:30:26Z</time>
      </trkpt>
      <trkpt lat="31.49313000" lon="34.68252000">
        <ele>140.00000</ele>
        <time>2010-01-01T00:30:31Z</time>
      </trkpt>
      <trkpt lat="31.49338000" lon="34.68268000">
        <ele>143.00000</ele>
        <time>2010-01-01T00:30:42Z</time>
      </trkpt>
      <trkpt lat="31.49348000" lon="34.68281000">
        <ele>144.00000</ele>
        <time>2010-01-01T00:30:48Z</time>
      </trkpt>
      <trkpt lat="31.49353000" lon="34.68301000">
        <ele>145.00000</ele>
        <time>2010-01-01T00:30:56Z</time>
      </trkpt>
      <trkpt lat="31.49349000" lon="34.68312000">
        <ele>145.00000</ele>
        <time>2010-01-01T00:31:00Z</time>
      </trkpt>
      <trkpt lat="31.49339000" lon="34.68318000">
        <ele>145.00000</ele>
        <time>2010-01-01T00:31:04Z</time>
      </trkpt>
      <trkpt lat="31.49321000" lon="34.68320000">
        <ele>144.00000</ele>
        <time>2010-01-01T00:31:11Z</time>
      </trkpt>
      <trkpt lat="31.49302000" lon="34.68319000">
        <ele>144.00000</ele>
        <time>2010-01-01T00:31:19Z</time>
      </trkpt>
      <trkpt lat="31.49287000" lon="34.68316000">
        <ele>144.00000</ele>
        <time>2010-01-01T00:31:25Z</time>
      </trkpt>
      <trkpt lat="31.49275000" lon="34.68299000">
        <ele>143.00000</ele>
        <time>2010-01-01T00:31:33Z</time>
      </trkpt>
      <trkpt lat="31.49271000" lon="34.68298000">
        <ele>143.00000</ele>
        <time>2010-01-01T00:31:34Z</time>
      </trkpt>
      <trkpt lat="31.49268000" lon="34.68303000">
        <ele>144.00000</ele>
        <time>2010-01-01T00:31:36Z</time>
      </trkpt>
      <trkpt lat="31.49267000" lon="34.68310000">
        <ele>144.00000</ele>
        <time>2010-01-01T00:31:39Z</time>
      </trkpt>
      <trkpt lat="31.49269000" lon="34.68323000">
        <ele>145.00000</ele>
        <time>2010-01-01T00:31:43Z</time>
      </trkpt>
      <trkpt lat="31.49263000" lon="34.68339000">
        <ele>146.00000</ele>
        <time>2010-01-01T00:31:49Z</time>
      </trkpt>
      <trkpt lat="31.49251000" lon="34.68341000">
        <ele>146.00000</ele>
        <time>2010-01-01T00:31:54Z</time>
      </trkpt>
      <trkpt lat="31.49244000" lon="34.68338000">
        <ele>145.00000</ele>
        <time>2010-01-01T00:31:57Z</time>
      </trkpt>
      <trkpt lat="31.49236000" lon="34.68327000">
        <ele>145.00000</ele>
        <time>2010-01-01T00:32:02Z</time>
      </trkpt>
      <trkpt lat="31.49227000" lon="34.68319000">
        <ele>145.00000</ele>
        <time>2010-01-01T00:32:07Z</time>
      </trkpt>
      <trkpt lat="31.49207000" lon="34.68315000">
        <ele>144.00000</ele>
        <time>2010-01-01T00:32:15Z</time>
      </trkpt>
      <trkpt lat="31.49207000" lon="34.68314000">
        <ele>144.00000</ele>
        <time>2010-01-01T00:32:15Z</time>
      </trkpt>
      <trkpt lat="31.49208000" lon="34.68315000">
        <ele>144.00000</ele>
        <time>2010-01-01T00:32:16Z</time>
      </trkpt>
      <trkpt lat="31.49196000" lon="34.68324000">
        <ele>143.00000</ele>
        <time>2010-01-01T00:32:21Z</time>
      </trkpt>
      <trkpt lat="31.49192000" lon="34.68335000">
        <ele>142.00000</ele>
        <time>2010-01-01T00:32:25Z</time>
      </trkpt>
      <trkpt lat="31.49193000" lon="34.68347000">
        <ele>142.00000</ele>
        <time>2010-01-01T00:32:29Z</time>
      </trkpt>
      <trkpt lat="31.49198000" lon="34.68360000">
        <ele>142.00000</ele>
        <time>2010-01-01T00:32:34Z</time>
      </trkpt>
      <trkpt lat="31.49206000" lon="34.68373000">
        <ele>142.00000</ele>
        <time>2010-01-01T00:32:40Z</time>
      </trkpt>
      <trkpt lat="31.49229000" lon="34.68383000">
        <ele>144.00000</ele>
        <time>2010-01-01T00:32:50Z</time>
      </trkpt>
      <trkpt lat="31.49240000" lon="34.68391000">
        <ele>145.00000</ele>
        <time>2010-01-01T00:32:55Z</time>
      </trkpt>
      <trkpt lat="31.49247000" lon="34.68402000">
        <ele>146.00000</ele>
        <time>2010-01-01T00:32:59Z</time>
      </trkpt>
      <trkpt lat="31.49250000" lon="34.68420000">
        <ele>145.00000</ele>
        <time>2010-01-01T00:33:06Z</time>
      </trkpt>
      <trkpt lat="31.49255000" lon="34.68429000">
        <ele>145.00000</ele>
        <time>2010-01-01T00:33:09Z</time>
      </trkpt>
      <trkpt lat="31.49262000" lon="34.68435000">
        <ele>144.00000</ele>
        <time>2010-01-01T00:33:13Z</time>
      </trkpt>
      <trkpt lat="31.49291000" lon="34.68446000">
        <ele>144.00000</ele>
        <time>2010-01-01T00:33:25Z</time>
      </trkpt>
      <trkpt lat="31.49317000" lon="34.68479000">
        <ele>143.00000</ele>
        <time>2010-01-01T00:33:40Z</time>
      </trkpt>
      <trkpt lat="31.49334000" lon="34.68505000">
        <ele>143.00000</ele>
        <time>2010-01-01T00:33:52Z</time>
      </trkpt>
      <trkpt lat="31.49334000" lon="34.68504000">
        <ele>143.00000</ele>
        <time>2010-01-01T00:33:52Z</time>
      </trkpt>
      <trkpt lat="31.49327000" lon="34.68525000">
        <ele>143.00000</ele>
        <time>2010-01-01T00:34:00Z</time>
      </trkpt>
      <trkpt lat="31.49296000" lon="34.68544000">
        <ele>144.00000</ele>
        <time>2010-01-01T00:34:14Z</time>
      </trkpt>
      <trkpt lat="31.49250000" lon="34.68546000">
        <ele>148.00000</ele>
        <time>2010-01-01T00:34:32Z</time>
      </trkpt>
      <trkpt lat="31.49211000" lon="34.68530000">
        <ele>143.00000</ele>
        <time>2010-01-01T00:34:49Z</time>
      </trkpt>
      <trkpt lat="31.49202000" lon="34.68531000">
        <ele>142.00000</ele>
        <time>2010-01-01T00:34:52Z</time>
      </trkpt>
      <trkpt lat="31.49202000" lon="34.68530000">
        <ele>142.00000</ele>
        <time>2010-01-01T00:34:53Z</time>
      </trkpt>
      <trkpt lat="31.49199000" lon="34.68536000">
        <ele>142.00000</ele>
        <time>2010-01-01T00:34:55Z</time>
      </trkpt>
      <trkpt lat="31.49199000" lon="34.68552000">
        <ele>142.00000</ele>
        <time>2010-01-01T00:35:00Z</time>
      </trkpt>
      <trkpt lat="31.49203000" lon="34.68576000">
        <ele>143.00000</ele>
        <time>2010-01-01T00:35:09Z</time>
      </trkpt>
      <trkpt lat="31.49202000" lon="34.68591000">
        <ele>143.00000</ele>
        <time>2010-01-01T00:35:14Z</time>
      </trkpt>
      <trkpt lat="31.49203000" lon="34.68627000">
        <ele>146.00000</ele>
        <time>2010-01-01T00:35:26Z</time>
      </trkpt>
      <trkpt lat="31.49197000" lon="34.68638000">
        <ele>146.00000</ele>
        <time>2010-01-01T00:35:31Z</time>
      </trkpt>
      <trkpt lat="31.49198000" lon="34.68687000">
        <ele>146.00000</ele>
        <time>2010-01-01T00:35:47Z</time>
      </trkpt>
      <trkpt lat="31.49212000" lon="34.68717000">
        <ele>143.00000</ele>
        <time>2010-01-01T00:35:59Z</time>
      </trkpt>
      <trkpt lat="31.49265000" lon="34.68800000">
        <ele>145.00000</ele>
        <time>2010-01-01T00:36:34Z</time>
      </trkpt>
      <trkpt lat="31.49284000" lon="34.68819000">
        <ele>147.00000</ele>
        <time>2010-01-01T00:36:44Z</time>
      </trkpt>
      <trkpt lat="31.49332000" lon="34.68819000">
        <ele>148.00000</ele>
        <time>2010-01-01T00:37:04Z</time>
      </trkpt>
      <trkpt lat="31.49331000" lon="34.68819000">
        <ele>148.00000</ele>
        <time>2010-01-01T00:37:04Z</time>
      </trkpt>
      <trkpt lat="31.49362000" lon="34.68853000">
        <ele>150.00000</ele>
        <time>2010-01-01T00:37:21Z</time>
      </trkpt>
      <trkpt lat="31.49374000" lon="34.68875000">
        <ele>152.00000</ele>
        <time>2010-01-01T00:37:30Z</time>
      </trkpt>
      <trkpt lat="31.49368000" lon="34.68920000">
        <ele>154.00000</ele>
        <time>2010-01-01T00:37:45Z</time>
      </trkpt>
      <trkpt lat="31.49372000" lon="34.68967000">
        <ele>155.00000</ele>
        <time>2010-01-01T00:38:02Z</time>
      </trkpt>
      <trkpt lat="31.49385000" lon="34.69012000">
        <ele>154.00000</ele>
        <time>2010-01-01T00:38:18Z</time>
      </trkpt>
      <trkpt lat="31.49390000" lon="34.69047000">
        <ele>153.00000</ele>
        <time>2010-01-01T00:38:30Z</time>
      </trkpt>
      <trkpt lat="31.49373000" lon="34.69120000">
        <ele>156.00000</ele>
        <time>2010-01-01T00:38:56Z</time>
      </trkpt>
      <trkpt lat="31.49376000" lon="34.69152000">
        <ele>158.00000</ele>
        <time>2010-01-01T00:39:07Z</time>
      </trkpt>
      <trkpt lat="31.49414000" lon="34.69170000">
        <ele>159.00000</ele>
        <time>2010-01-01T00:39:23Z</time>
      </trkpt>
      <trkpt lat="31.49421000" lon="34.69138000">
        <ele>157.00000</ele>
        <time>2010-01-01T00:39:34Z</time>
      </trkpt>
      <trkpt lat="31.49442000" lon="34.69146000">
        <ele>158.00000</ele>
        <time>2010-01-01T00:39:43Z</time>
      </trkpt>
      <trkpt lat="31.49442000" lon="34.69145000">
        <ele>158.00000</ele>
        <time>2010-01-01T00:39:44Z</time>
      </trkpt>
      <trkpt lat="31.49443000" lon="34.69146000">
        <ele>158.00000</ele>
        <time>2010-01-01T00:39:44Z</time>
      </trkpt>
      <trkpt lat="31.49442000" lon="34.69179000">
        <ele>159.00000</ele>
        <time>2010-01-01T00:39:55Z</time>
      </trkpt>
      <trkpt lat="31.49449000" lon="34.69212000">
        <ele>160.00000</ele>
        <time>2010-01-01T00:40:07Z</time>
      </trkpt>
      <trkpt lat="31.49475000" lon="34.69291000">
        <ele>161.00000</ele>
        <time>2010-01-01T00:40:36Z</time>
      </trkpt>
      <trkpt lat="31.49475000" lon="34.69290000">
        <ele>161.00000</ele>
        <time>2010-01-01T00:40:36Z</time>
      </trkpt>
      <trkpt lat="31.49543000" lon="34.69508000">
        <ele>154.00000</ele>
        <time>2010-01-01T00:41:55Z</time>
      </trkpt>
      <trkpt lat="31.49548000" lon="34.69538000">
        <ele>153.00000</ele>
        <time>2010-01-01T00:42:06Z</time>
      </trkpt>
      <trkpt lat="31.49558000" lon="34.69541000">
        <ele>153.00000</ele>
        <time>2010-01-01T00:42:10Z</time>
      </trkpt>
      <trkpt lat="31.49559000" lon="34.69534000">
        <ele>153.00000</ele>
        <time>2010-01-01T00:42:12Z</time>
      </trkpt>
      <trkpt lat="31.49551000" lon="34.69482000">
        <ele>156.00000</ele>
        <time>2010-01-01T00:42:31Z</time>
      </trkpt>
      <trkpt lat="31.49548000" lon="34.69455000">
        <ele>157.00000</ele>
        <time>2010-01-01T00:42:40Z</time>
      </trkpt>
      <trkpt lat="31.49533000" lon="34.69431000">
        <ele>158.00000</ele>
        <time>2010-01-01T00:42:50Z</time>
      </trkpt>
      <trkpt lat="31.49530000" lon="34.69409000">
        <ele>158.00000</ele>
        <time>2010-01-01T00:42:58Z</time>
      </trkpt>
      <trkpt lat="31.49552000" lon="34.69395000">
        <ele>157.00000</ele>
        <time>2010-01-01T00:43:08Z</time>
      </trkpt>
      <trkpt lat="31.49580000" lon="34.69405000">
        <ele>157.00000</ele>
        <time>2010-01-01T00:43:19Z</time>
      </trkpt>
      <trkpt lat="31.49599000" lon="34.69422000">
        <ele>156.00000</ele>
        <time>2010-01-01T00:43:29Z</time>
      </trkpt>
      <trkpt lat="31.49606000" lon="34.69447000">
        <ele>153.00000</ele>
        <time>2010-01-01T00:43:38Z</time>
      </trkpt>
      <trkpt lat="31.49611000" lon="34.69450000">
        <ele>152.00000</ele>
        <time>2010-01-01T00:43:40Z</time>
      </trkpt>
      <trkpt lat="31.49616000" lon="34.69441000">
        <ele>153.00000</ele>
        <time>2010-01-01T00:43:44Z</time>
      </trkpt>
      <trkpt lat="31.49619000" lon="34.69417000">
        <ele>155.00000</ele>
        <time>2010-01-01T00:43:52Z</time>
      </trkpt>
      <trkpt lat="31.49617000" lon="34.69406000">
        <ele>155.00000</ele>
        <time>2010-01-01T00:43:56Z</time>
      </trkpt>
      <trkpt lat="31.49596000" lon="34.69396000">
        <ele>157.00000</ele>
        <time>2010-01-01T00:44:05Z</time>
      </trkpt>
      <trkpt lat="31.49597000" lon="34.69390000">
        <ele>157.00000</ele>
        <time>2010-01-01T00:44:07Z</time>
      </trkpt>
      <trkpt lat="31.49601000" lon="34.69388000">
        <ele>156.00000</ele>
        <time>2010-01-01T00:44:09Z</time>
      </trkpt>
      <trkpt lat="31.49654000" lon="34.69410000">
        <ele>149.00000</ele>
        <time>2010-01-01T00:44:31Z</time>
      </trkpt>
      <trkpt lat="31.49666000" lon="34.69429000">
        <ele>148.00000</ele>
        <time>2010-01-01T00:44:39Z</time>
      </trkpt>
      <trkpt lat="31.49673000" lon="34.69463000">
        <ele>147.00000</ele>
        <time>2010-01-01T00:44:51Z</time>
      </trkpt>
      <trkpt lat="31.49660000" lon="34.69494000">
        <ele>148.00000</ele>
        <time>2010-01-01T00:45:03Z</time>
      </trkpt>
      <trkpt lat="31.49650000" lon="34.69511000">
        <ele>147.00000</ele>
        <time>2010-01-01T00:45:10Z</time>
      </trkpt>
      <trkpt lat="31.49645000" lon="34.69534000">
        <ele>147.00000</ele>
        <time>2010-01-01T00:45:18Z</time>
      </trkpt>
      <trkpt lat="31.49630000" lon="34.69558000">
        <ele>148.00000</ele>
        <time>2010-01-01T00:45:28Z</time>
      </trkpt>
      <trkpt lat="31.49630000" lon="34.69581000">
        <ele>148.00000</ele>
        <time>2010-01-01T00:45:36Z</time>
      </trkpt>
      <trkpt lat="31.49638000" lon="34.69590000">
        <ele>148.00000</ele>
        <time>2010-01-01T00:45:41Z</time>
      </trkpt>
      <trkpt lat="31.49638000" lon="34.69589000">
        <ele>148.00000</ele>
        <time>2010-01-01T00:45:41Z</time>
      </trkpt>
      <trkpt lat="31.49658000" lon="34.69618000">
        <ele>146.00000</ele>
        <time>2010-01-01T00:45:54Z</time>
      </trkpt>
      <trkpt lat="31.49676000" lon="34.69620000">
        <ele>145.00000</ele>
        <time>2010-01-01T00:46:01Z</time>
      </trkpt>
      <trkpt lat="31.49693000" lon="34.69615000">
        <ele>145.00000</ele>
        <time>2010-01-01T00:46:08Z</time>
      </trkpt>
      <trkpt lat="31.49719000" lon="34.69602000">
        <ele>145.00000</ele>
        <time>2010-01-01T00:46:19Z</time>
      </trkpt>
      <trkpt lat="31.49735000" lon="34.69604000">
        <ele>147.00000</ele>
        <time>2010-01-01T00:46:26Z</time>
      </trkpt>
      <trkpt lat="31.49740000" lon="34.69620000">
        <ele>148.00000</ele>
        <time>2010-01-01T00:46:32Z</time>
      </trkpt>
      <trkpt lat="31.49757000" lon="34.69629000">
        <ele>150.00000</ele>
        <time>2010-01-01T00:46:39Z</time>
      </trkpt>
      <trkpt lat="31.49772000" lon="34.69644000">
        <ele>150.00000</ele>
        <time>2010-01-01T00:46:47Z</time>
      </trkpt>
      <trkpt lat="31.49791000" lon="34.69642000">
        <ele>151.00000</ele>
        <time>2010-01-01T00:46:55Z</time>
      </trkpt>
      <trkpt lat="31.49806000" lon="34.69651000">
        <ele>152.00000</ele>
        <time>2010-01-01T00:47:01Z</time>
      </trkpt>
      <trkpt lat="31.49800000" lon="34.69667000">
        <ele>152.00000</ele>
        <time>2010-01-01T00:47:07Z</time>
      </trkpt>
      <trkpt lat="31.49795000" lon="34.69685000">
        <ele>152.00000</ele>
        <time>2010-01-01T00:47:14Z</time>
      </trkpt>
      <trkpt lat="31.49798000" lon="34.69710000">
        <ele>153.00000</ele>
        <time>2010-01-01T00:47:22Z</time>
      </trkpt>
      <trkpt lat="31.49814000" lon="34.69749000">
        <ele>154.00000</ele>
        <time>2010-01-01T00:47:37Z</time>
      </trkpt>
      <trkpt lat="31.49854000" lon="34.69781000">
        <ele>157.00000</ele>
        <time>2010-01-01T00:47:57Z</time>
      </trkpt>
      <trkpt lat="31.49880000" lon="34.69805000">
        <ele>157.00000</ele>
        <time>2010-01-01T00:48:10Z</time>
      </trkpt>
      <trkpt lat="31.49897000" lon="34.69814000">
        <ele>158.00000</ele>
        <time>2010-01-01T00:48:17Z</time>
      </trkpt>
      <trkpt lat="31.49912000" lon="34.69829000">
        <ele>159.00000</ele>
        <time>2010-01-01T00:48:25Z</time>
      </trkpt>
      <trkpt lat="31.49925000" lon="34.69835000">
        <ele>160.00000</ele>
        <time>2010-01-01T00:48:31Z</time>
      </trkpt>
      <trkpt lat="31.49940000" lon="34.69825000">
        <ele>162.00000</ele>
        <time>2010-01-01T00:48:38Z</time>
      </trkpt>
      <trkpt lat="31.49951000" lon="34.69831000">
        <ele>163.00000</ele>
        <time>2010-01-01T00:48:42Z</time>
      </trkpt>
      <trkpt lat="31.49947000" lon="34.69846000">
        <ele>163.00000</ele>
        <time>2010-01-01T00:48:48Z</time>
      </trkpt>
      <trkpt lat="31.49949000" lon="34.69859000">
        <ele>163.00000</ele>
        <time>2010-01-01T00:48:52Z</time>
      </trkpt>
      <trkpt lat="31.49942000" lon="34.69877000">
        <ele>163.00000</ele>
        <time>2010-01-01T00:48:59Z</time>
      </trkpt>
      <trkpt lat="31.49940000" lon="34.69897000">
        <ele>163.00000</ele>
        <time>2010-01-01T00:49:06Z</time>
      </trkpt>
      <trkpt lat="31.49935000" lon="34.69910000">
        <ele>164.00000</ele>
        <time>2010-01-01T00:49:11Z</time>
      </trkpt>
      <trkpt lat="31.49934000" lon="34.69910000">
        <ele>164.00000</ele>
        <time>2010-01-01T00:49:11Z</time>
      </trkpt>
      <trkpt lat="31.49952000" lon="34.69911000">
        <ele>163.00000</ele>
        <time>2010-01-01T00:49:18Z</time>
      </trkpt>
      <trkpt lat="31.49961000" lon="34.69925000">
        <ele>162.00000</ele>
        <time>2010-01-01T00:49:24Z</time>
      </trkpt>
      <trkpt lat="31.49981000" lon="34.69979000">
        <ele>164.00000</ele>
        <time>2010-01-01T00:49:45Z</time>
      </trkpt>
      <trkpt lat="31.49994000" lon="34.69996000">
        <ele>165.00000</ele>
        <time>2010-01-01T00:49:52Z</time>
      </trkpt>
      <trkpt lat="31.50014000" lon="34.70005000">
        <ele>165.00000</ele>
        <time>2010-01-01T00:50:01Z</time>
      </trkpt>
      <trkpt lat="31.50021000" lon="34.70014000">
        <ele>165.00000</ele>
        <time>2010-01-01T00:50:05Z</time>
      </trkpt>
      <trkpt lat="31.50025000" lon="34.70015000">
        <ele>165.00000</ele>
        <time>2010-01-01T00:50:07Z</time>
      </trkpt>
      <trkpt lat="31.50040000" lon="34.70009000">
        <ele>163.00000</ele>
        <time>2010-01-01T00:50:13Z</time>
      </trkpt>
      <trkpt lat="31.50045000" lon="34.70010000">
        <ele>162.00000</ele>
        <time>2010-01-01T00:50:15Z</time>
      </trkpt>
      <trkpt lat="31.50051000" lon="34.70014000">
        <ele>161.00000</ele>
        <time>2010-01-01T00:50:18Z</time>
      </trkpt>
      <trkpt lat="31.50057000" lon="34.70029000">
        <ele>161.00000</ele>
        <time>2010-01-01T00:50:24Z</time>
      </trkpt>
      <trkpt lat="31.50063000" lon="34.70055000">
        <ele>161.00000</ele>
        <time>2010-01-01T00:50:33Z</time>
      </trkpt>
      <trkpt lat="31.50064000" lon="34.70066000">
        <ele>161.00000</ele>
        <time>2010-01-01T00:50:36Z</time>
      </trkpt>
      <trkpt lat="31.50068000" lon="34.70084000">
        <ele>161.00000</ele>
        <time>2010-01-01T00:50:43Z</time>
      </trkpt>
      <trkpt lat="31.50062000" lon="34.70125000">
        <ele>160.00000</ele>
        <time>2010-01-01T00:50:57Z</time>
      </trkpt>
      <trkpt lat="31.50062000" lon="34.70124000">
        <ele>160.00000</ele>
        <time>2010-01-01T00:50:57Z</time>
      </trkpt>
      <trkpt lat="31.50064000" lon="34.70127000">
        <ele>160.00000</ele>
        <time>2010-01-01T00:50:59Z</time>
      </trkpt>
      <trkpt lat="31.50072000" lon="34.70129000">
        <ele>159.00000</ele>
        <time>2010-01-01T00:51:02Z</time>
      </trkpt>
      <trkpt lat="31.50076000" lon="34.70125000">
        <ele>159.00000</ele>
        <time>2010-01-01T00:51:04Z</time>
      </trkpt>
      <trkpt lat="31.50087000" lon="34.70082000">
        <ele>158.00000</ele>
        <time>2010-01-01T00:51:19Z</time>
      </trkpt>
      <trkpt lat="31.50087000" lon="34.70057000">
        <ele>155.00000</ele>
        <time>2010-01-01T00:51:28Z</time>
      </trkpt>
      <trkpt lat="31.50089000" lon="34.70046000">
        <ele>154.00000</ele>
        <time>2010-01-01T00:51:32Z</time>
      </trkpt>
      <trkpt lat="31.50110000" lon="34.69986000">
        <ele>151.00000</ele>
        <time>2010-01-01T00:51:54Z</time>
      </trkpt>
      <trkpt lat="31.50114000" lon="34.69981000">
        <ele>150.00000</ele>
        <time>2010-01-01T00:51:56Z</time>
      </trkpt>
      <trkpt lat="31.50119000" lon="34.69981000">
        <ele>149.00000</ele>
        <time>2010-01-01T00:51:58Z</time>
      </trkpt>
      <trkpt lat="31.50127000" lon="34.69985000">
        <ele>148.00000</ele>
        <time>2010-01-01T00:52:02Z</time>
      </trkpt>
      <trkpt lat="31.50134000" lon="34.69979000">
        <ele>147.00000</ele>
        <time>2010-01-01T00:52:05Z</time>
      </trkpt>
      <trkpt lat="31.50139000" lon="34.69957000">
        <ele>146.00000</ele>
        <time>2010-01-01T00:52:13Z</time>
      </trkpt>
      <trkpt lat="31.50150000" lon="34.69935000">
        <ele>145.00000</ele>
        <time>2010-01-01T00:52:22Z</time>
      </trkpt>
      <trkpt lat="31.50169000" lon="34.69909000">
        <ele>143.00000</ele>
        <time>2010-01-01T00:52:33Z</time>
      </trkpt>
      <trkpt lat="31.50178000" lon="34.69886000">
        <ele>144.00000</ele>
        <time>2010-01-01T00:52:42Z</time>
      </trkpt>
      <trkpt lat="31.50185000" lon="34.69845000">
        <ele>145.00000</ele>
        <time>2010-01-01T00:52:56Z</time>
      </trkpt>
      <trkpt lat="31.50184000" lon="34.69825000">
        <ele>145.00000</ele>
        <time>2010-01-01T00:53:03Z</time>
      </trkpt>
      <trkpt lat="31.50178000" lon="34.69794000">
        <ele>145.00000</ele>
        <time>2010-01-01T00:53:14Z</time>
      </trkpt>
      <trkpt lat="31.50171000" lon="34.69768000">
        <ele>145.00000</ele>
        <time>2010-01-01T00:53:23Z</time>
      </trkpt>
      <trkpt lat="31.50160000" lon="34.69739000">
        <ele>146.00000</ele>
        <time>2010-01-01T00:53:34Z</time>
      </trkpt>
      <trkpt lat="31.50153000" lon="34.69705000">
        <ele>148.00000</ele>
        <time>2010-01-01T00:53:46Z</time>
      </trkpt>
      <trkpt lat="31.50144000" lon="34.69675000">
        <ele>147.00000</ele>
        <time>2010-01-01T00:53:57Z</time>
      </trkpt>
      <trkpt lat="31.50141000" lon="34.69648000">
        <ele>146.00000</ele>
        <time>2010-01-01T00:54:06Z</time>
      </trkpt>
      <trkpt lat="31.50145000" lon="34.69600000">
        <ele>142.00000</ele>
        <time>2010-01-01T00:54:23Z</time>
      </trkpt>
      <trkpt lat="31.50144000" lon="34.69586000">
        <ele>143.00000</ele>
        <time>2010-01-01T00:54:27Z</time>
      </trkpt>
      <trkpt lat="31.50144000" lon="34.69522000">
        <ele>141.00000</ele>
        <time>2010-01-01T00:54:49Z</time>
      </trkpt>
      <trkpt lat="31.50145000" lon="34.69516000">
        <ele>140.00000</ele>
        <time>2010-01-01T00:54:51Z</time>
      </trkpt>
      <trkpt lat="31.50146000" lon="34.69491000">
        <ele>140.00000</ele>
        <time>2010-01-01T00:55:00Z</time>
      </trkpt>
      <trkpt lat="31.50147000" lon="34.69485000">
        <ele>141.00000</ele>
        <time>2010-01-01T00:55:02Z</time>
      </trkpt>
      <trkpt lat="31.50147000" lon="34.69475000">
        <ele>141.00000</ele>
        <time>2010-01-01T00:55:05Z</time>
      </trkpt>
      <trkpt lat="31.50156000" lon="34.69434000">
        <ele>141.00000</ele>
        <time>2010-01-01T00:55:20Z</time>
      </trkpt>
      <trkpt lat="31.50158000" lon="34.69418000">
        <ele>140.00000</ele>
        <time>2010-01-01T00:55:25Z</time>
      </trkpt>
      <trkpt lat="31.50158000" lon="34.69399000">
        <ele>139.00000</ele>
        <time>2010-01-01T00:55:32Z</time>
      </trkpt>
      <trkpt lat="31.50155000" lon="34.69382000">
        <ele>139.00000</ele>
        <time>2010-01-01T00:55:38Z</time>
      </trkpt>
      <trkpt lat="31.50151000" lon="34.69345000">
        <ele>139.00000</ele>
        <time>2010-01-01T00:55:50Z</time>
      </trkpt>
      <trkpt lat="31.50153000" lon="34.69299000">
        <ele>136.00000</ele>
        <time>2010-01-01T00:56:06Z</time>
      </trkpt>
      <trkpt lat="31.50157000" lon="34.69268000">
        <ele>136.00000</ele>
        <time>2010-01-01T00:56:17Z</time>
      </trkpt>
      <trkpt lat="31.50162000" lon="34.69242000">
        <ele>136.00000</ele>
        <time>2010-01-01T00:56:26Z</time>
      </trkpt>
      <trkpt lat="31.50177000" lon="34.69203000">
        <ele>135.00000</ele>
        <time>2010-01-01T00:56:41Z</time>
      </trkpt>
      <trkpt lat="31.50182000" lon="34.69194000">
        <ele>134.00000</ele>
        <time>2010-01-01T00:56:44Z</time>
      </trkpt>
      <trkpt lat="31.50190000" lon="34.69169000">
        <ele>132.00000</ele>
        <time>2010-01-01T00:56:53Z</time>
      </trkpt>
      <trkpt lat="31.50193000" lon="34.69148000">
        <ele>131.00000</ele>
        <time>2010-01-01T00:57:01Z</time>
      </trkpt>
      <trkpt lat="31.50195000" lon="34.69116000">
        <ele>129.00000</ele>
        <time>2010-01-01T00:57:12Z</time>
      </trkpt>
      <trkpt lat="31.50199000" lon="34.69094000">
        <ele>129.00000</ele>
        <time>2010-01-01T00:57:19Z</time>
      </trkpt>
      <trkpt lat="31.50206000" lon="34.69077000">
        <ele>129.00000</ele>
        <time>2010-01-01T00:57:26Z</time>
      </trkpt>
      <trkpt lat="31.50218000" lon="34.69061000">
        <ele>129.00000</ele>
        <time>2010-01-01T00:57:33Z</time>
      </trkpt>
      <trkpt lat="31.50240000" lon="34.69044000">
        <ele>134.00000</ele>
        <time>2010-01-01T00:57:44Z</time>
      </trkpt>
      <trkpt lat="31.50290000" lon="34.69027000">
        <ele>140.00000</ele>
        <time>2010-01-01T00:58:04Z</time>
      </trkpt>
      <trkpt lat="31.50305000" lon="34.69009000">
        <ele>141.00000</ele>
        <time>2010-01-01T00:58:13Z</time>
      </trkpt>
      <trkpt lat="31.50304000" lon="34.69009000">
        <ele>141.00000</ele>
        <time>2010-01-01T00:58:13Z</time>
      </trkpt>
      <trkpt lat="31.50342000" lon="34.69030000">
        <ele>146.00000</ele>
        <time>2010-01-01T00:58:30Z</time>
      </trkpt>
      <trkpt lat="31.50379000" lon="34.69038000">
        <ele>149.00000</ele>
        <time>2010-01-01T00:58:45Z</time>
      </trkpt>
      <trkpt lat="31.50410000" lon="34.69048000">
        <ele>152.00000</ele>
        <time>2010-01-01T00:58:58Z</time>
      </trkpt>
      <trkpt lat="31.50432000" lon="34.69059000">
        <ele>154.00000</ele>
        <time>2010-01-01T00:59:08Z</time>
      </trkpt>
      <trkpt lat="31.50473000" lon="34.69084000">
        <ele>156.00000</ele>
        <time>2010-01-01T00:59:26Z</time>
      </trkpt>
      <trkpt lat="31.50544000" lon="34.69092000">
        <ele>158.00000</ele>
        <time>2010-01-01T00:59:55Z</time>
      </trkpt>
      <trkpt lat="31.50562000" lon="34.69097000">
        <ele>158.00000</ele>
        <time>2010-01-01T01:00:02Z</time>
      </trkpt>
      <trkpt lat="31.50670000" lon="34.69138000">
        <ele>162.00000</ele>
        <time>2010-01-01T01:00:48Z</time>
      </trkpt>
      <trkpt lat="31.50756000" lon="34.69154000">
        <ele>164.00000</ele>
        <time>2010-01-01T01:01:22Z</time>
      </trkpt>
      <trkpt lat="31.50806000" lon="34.69167000">
        <ele>166.00000</ele>
        <time>2010-01-01T01:01:43Z</time>
      </trkpt>
      <trkpt lat="31.50884000" lon="34.69193000">
        <ele>167.00000</ele>
        <time>2010-01-01T01:02:15Z</time>
      </trkpt>
      <trkpt lat="31.50896000" lon="34.69199000">
        <ele>168.00000</ele>
        <time>2010-01-01T01:02:21Z</time>
      </trkpt>
      <trkpt lat="31.50918000" lon="34.69216000">
        <ele>169.00000</ele>
        <time>2010-01-01T01:02:31Z</time>
      </trkpt>
      <trkpt lat="31.50929000" lon="34.69223000">
        <ele>169.00000</ele>
        <time>2010-01-01T01:02:36Z</time>
      </trkpt>
      <trkpt lat="31.50948000" lon="34.69227000">
        <ele>169.00000</ele>
        <time>2010-01-01T01:02:44Z</time>
      </trkpt>
      <trkpt lat="31.50947000" lon="34.69227000">
        <ele>169.00000</ele>
        <time>2010-01-01T01:02:44Z</time>
      </trkpt>
      <trkpt lat="31.50976000" lon="34.69222000">
        <ele>170.00000</ele>
        <time>2010-01-01T01:02:56Z</time>
      </trkpt>
      <trkpt lat="31.51007000" lon="34.69212000">
        <ele>172.00000</ele>
        <time>2010-01-01T01:03:09Z</time>
      </trkpt>
      <trkpt lat="31.51021000" lon="34.69213000">
        <ele>172.00000</ele>
        <time>2010-01-01T01:03:15Z</time>
      </trkpt>
      <trkpt lat="31.51051000" lon="34.69220000">
        <ele>171.00000</ele>
        <time>2010-01-01T01:03:27Z</time>
      </trkpt>
      <trkpt lat="31.51072000" lon="34.69220000">
        <ele>171.00000</ele>
        <time>2010-01-01T01:03:35Z</time>
      </trkpt>
      <trkpt lat="31.51080000" lon="34.69217000">
        <ele>171.00000</ele>
        <time>2010-01-01T01:03:39Z</time>
      </trkpt>
      <trkpt lat="31.51106000" lon="34.69218000">
        <ele>172.00000</ele>
        <time>2010-01-01T01:03:49Z</time>
      </trkpt>
      <trkpt lat="31.51129000" lon="34.69226000">
        <ele>173.00000</ele>
        <time>2010-01-01T01:03:59Z</time>
      </trkpt>
      <trkpt lat="31.51136000" lon="34.69231000">
        <ele>174.00000</ele>
        <time>2010-01-01T01:04:02Z</time>
      </trkpt>
      <trkpt lat="31.51156000" lon="34.69195000">
        <ele>175.00000</ele>
        <time>2010-01-01T01:04:17Z</time>
      </trkpt>
      <trkpt lat="31.51168000" lon="34.69177000">
        <ele>175.00000</ele>
        <time>2010-01-01T01:04:24Z</time>
      </trkpt>
      <trkpt lat="31.51175000" lon="34.69191000">
        <ele>175.00000</ele>
        <time>2010-01-01T01:04:30Z</time>
      </trkpt>
      <trkpt lat="31.51191000" lon="34.69201000">
        <ele>174.00000</ele>
        <time>2010-01-01T01:04:37Z</time>
      </trkpt>
      <trkpt lat="31.51198000" lon="34.69202000">
        <ele>173.00000</ele>
        <time>2010-01-01T01:04:40Z</time>
      </trkpt>
      <trkpt lat="31.51216000" lon="34.69198000">
        <ele>172.00000</ele>
        <time>2010-01-01T01:04:47Z</time>
      </trkpt>
      <trkpt lat="31.51241000" lon="34.69197000">
        <ele>171.00000</ele>
        <time>2010-01-01T01:04:57Z</time>
      </trkpt>
      <trkpt lat="31.51272000" lon="34.69189000">
        <ele>170.00000</ele>
        <time>2010-01-01T01:05:10Z</time>
      </trkpt>
      <trkpt lat="31.51289000" lon="34.69196000">
        <ele>168.00000</ele>
        <time>2010-01-01T01:05:17Z</time>
      </trkpt>
      <trkpt lat="31.51299000" lon="34.69198000">
        <ele>168.00000</ele>
        <time>2010-01-01T01:05:21Z</time>
      </trkpt>
      <trkpt lat="31.51310000" lon="34.69201000">
        <ele>167.00000</ele>
        <time>2010-01-01T01:05:26Z</time>
      </trkpt>
      <trkpt lat="31.51356000" lon="34.69202000">
        <ele>165.00000</ele>
        <time>2010-01-01T01:05:44Z</time>
      </trkpt>
      <trkpt lat="31.51363000" lon="34.69205000">
        <ele>165.00000</ele>
        <time>2010-01-01T01:05:47Z</time>
      </trkpt>
      <trkpt lat="31.51377000" lon="34.69207000">
        <ele>165.00000</ele>
        <time>2010-01-01T01:05:53Z</time>
      </trkpt>
      <trkpt lat="31.51388000" lon="34.69210000">
        <ele>166.00000</ele>
        <time>2010-01-01T01:05:57Z</time>
      </trkpt>
      <trkpt lat="31.51395000" lon="34.69210000">
        <ele>165.00000</ele>
        <time>2010-01-01T01:06:00Z</time>
      </trkpt>
      <trkpt lat="31.51405000" lon="34.69207000">
        <ele>164.00000</ele>
        <time>2010-01-01T01:06:04Z</time>
      </trkpt>
      <trkpt lat="31.51434000" lon="34.69206000">
        <ele>162.00000</ele>
        <time>2010-01-01T01:06:16Z</time>
      </trkpt>
      <trkpt lat="31.51455000" lon="34.69191000">
        <ele>160.00000</ele>
        <time>2010-01-01T01:06:26Z</time>
      </trkpt>
      <trkpt lat="31.51475000" lon="34.69183000">
        <ele>160.00000</ele>
        <time>2010-01-01T01:06:34Z</time>
      </trkpt>
      <trkpt lat="31.51513000" lon="34.69160000">
        <ele>155.00000</ele>
        <time>2010-01-01T01:06:51Z</time>
      </trkpt>
      <trkpt lat="31.51526000" lon="34.69155000">
        <ele>154.00000</ele>
        <time>2010-01-01T01:06:57Z</time>
      </trkpt>
      <trkpt lat="31.51544000" lon="34.69154000">
        <ele>154.00000</ele>
        <time>2010-01-01T01:07:04Z</time>
      </trkpt>
      <trkpt lat="31.51551000" lon="34.69150000">
        <ele>154.00000</ele>
        <time>2010-01-01T01:07:07Z</time>
      </trkpt>
      <trkpt lat="31.51559000" lon="34.69143000">
        <ele>153.00000</ele>
        <time>2010-01-01T01:07:11Z</time>
      </trkpt>
      <trkpt lat="31.51582000" lon="34.69116000">
        <ele>153.00000</ele>
        <time>2010-01-01T01:07:24Z</time>
      </trkpt>
      <trkpt lat="31.51600000" lon="34.69103000">
        <ele>152.00000</ele>
        <time>2010-01-01T01:07:33Z</time>
      </trkpt>
      <trkpt lat="31.51604000" lon="34.69103000">
        <ele>151.00000</ele>
        <time>2010-01-01T01:07:34Z</time>
      </trkpt>
      <trkpt lat="31.51625000" lon="34.69086000">
        <ele>150.00000</ele>
        <time>2010-01-01T01:07:44Z</time>
      </trkpt>
      <trkpt lat="31.51655000" lon="34.69074000">
        <ele>148.00000</ele>
        <time>2010-01-01T01:07:57Z</time>
      </trkpt>
      <trkpt lat="31.51680000" lon="34.69072000">
        <ele>146.00000</ele>
        <time>2010-01-01T01:08:07Z</time>
      </trkpt>
      <trkpt lat="31.51703000" lon="34.69060000">
        <ele>144.00000</ele>
        <time>2010-01-01T01:08:17Z</time>
      </trkpt>
      <trkpt lat="31.51720000" lon="34.69038000">
        <ele>143.00000</ele>
        <time>2010-01-01T01:08:27Z</time>
      </trkpt>
      <trkpt lat="31.51735000" lon="34.69015000">
        <ele>143.00000</ele>
        <time>2010-01-01T01:08:37Z</time>
      </trkpt>
      <trkpt lat="31.51747000" lon="34.69006000">
        <ele>143.00000</ele>
        <time>2010-01-01T01:08:43Z</time>
      </trkpt>
      <trkpt lat="31.51760000" lon="34.69000000">
        <ele>142.00000</ele>
        <time>2010-01-01T01:08:49Z</time>
      </trkpt>
      <trkpt lat="31.51772000" lon="34.68984000">
        <ele>142.00000</ele>
        <time>2010-01-01T01:08:56Z</time>
      </trkpt>
      <trkpt lat="31.51776000" lon="34.68983000">
        <ele>142.00000</ele>
        <time>2010-01-01T01:08:57Z</time>
      </trkpt>
      <trkpt lat="31.51778000" lon="34.68985000">
        <ele>141.00000</ele>
        <time>2010-01-01T01:08:58Z</time>
      </trkpt>
      <trkpt lat="31.51777000" lon="34.68985000">
        <ele>142.00000</ele>
        <time>2010-01-01T01:08:59Z</time>
      </trkpt>
      <trkpt lat="31.51786000" lon="34.69004000">
        <ele>141.00000</ele>
        <time>2010-01-01T01:09:06Z</time>
      </trkpt>
      <trkpt lat="31.51792000" lon="34.69009000">
        <ele>140.00000</ele>
        <time>2010-01-01T01:09:09Z</time>
      </trkpt>
      <trkpt lat="31.51803000" lon="34.69009000">
        <ele>139.00000</ele>
        <time>2010-01-01T01:09:14Z</time>
      </trkpt>
      <trkpt lat="31.51813000" lon="34.69003000">
        <ele>138.00000</ele>
        <time>2010-01-01T01:09:18Z</time>
      </trkpt>
      <trkpt lat="31.51822000" lon="34.68996000">
        <ele>137.00000</ele>
        <time>2010-01-01T01:09:22Z</time>
      </trkpt>
      <trkpt lat="31.51839000" lon="34.68975000">
        <ele>137.00000</ele>
        <time>2010-01-01T01:09:32Z</time>
      </trkpt>
      <trkpt lat="31.51855000" lon="34.68966000">
        <ele>137.00000</ele>
        <time>2010-01-01T01:09:39Z</time>
      </trkpt>
      <trkpt lat="31.51869000" lon="34.68950000">
        <ele>137.00000</ele>
        <time>2010-01-01T01:09:47Z</time>
      </trkpt>
      <trkpt lat="31.51868000" lon="34.68949000">
        <ele>137.00000</ele>
        <time>2010-01-01T01:09:48Z</time>
      </trkpt>
      <trkpt lat="31.51887000" lon="34.68960000">
        <ele>137.00000</ele>
        <time>2010-01-01T01:09:56Z</time>
      </trkpt>
      <trkpt lat="31.51886000" lon="34.69006000">
        <ele>138.00000</ele>
        <time>2010-01-01T01:10:12Z</time>
      </trkpt>
      <trkpt lat="31.51857000" lon="34.69043000">
        <ele>137.00000</ele>
        <time>2010-01-01T01:10:29Z</time>
      </trkpt>
      <trkpt lat="31.51853000" lon="34.69071000">
        <ele>138.00000</ele>
        <time>2010-01-01T01:10:39Z</time>
      </trkpt>
      <trkpt lat="31.51858000" lon="34.69080000">
        <ele>138.00000</ele>
        <time>2010-01-01T01:10:42Z</time>
      </trkpt>
      <trkpt lat="31.51847000" lon="34.69099000">
        <ele>139.00000</ele>
        <time>2010-01-01T01:10:50Z</time>
      </trkpt>
      <trkpt lat="31.51847000" lon="34.69123000">
        <ele>140.00000</ele>
        <time>2010-01-01T01:10:59Z</time>
      </trkpt>
      <trkpt lat="31.51864000" lon="34.69145000">
        <ele>142.00000</ele>
        <time>2010-01-01T01:11:09Z</time>
      </trkpt>
      <trkpt lat="31.51866000" lon="34.69198000">
        <ele>142.00000</ele>
        <time>2010-01-01T01:11:27Z</time>
      </trkpt>
      <trkpt lat="31.51856000" lon="34.69225000">
        <ele>142.00000</ele>
        <time>2010-01-01T01:11:37Z</time>
      </trkpt>
      <trkpt lat="31.51872000" lon="34.69297000">
        <ele>143.00000</ele>
        <time>2010-01-01T01:12:02Z</time>
      </trkpt>
      <trkpt lat="31.51877000" lon="34.69326000">
        <ele>144.00000</ele>
        <time>2010-01-01T01:12:12Z</time>
      </trkpt>
      <trkpt lat="31.51857000" lon="34.69387000">
        <ele>144.00000</ele>
        <time>2010-01-01T01:12:35Z</time>
      </trkpt>
      <trkpt lat="31.51861000" lon="34.69563000">
        <ele>149.00000</ele>
        <time>2010-01-01T01:13:35Z</time>
      </trkpt>
      <trkpt lat="31.51861000" lon="34.69622000">
        <ele>149.00000</ele>
        <time>2010-01-01T01:13:55Z</time>
      </trkpt>
      <trkpt lat="31.51842000" lon="34.69670000">
        <ele>148.00000</ele>
        <time>2010-01-01T01:14:13Z</time>
      </trkpt>
      <trkpt lat="31.51846000" lon="34.69737000">
        <ele>152.00000</ele>
        <time>2010-01-01T01:14:36Z</time>
      </trkpt>
      <trkpt lat="31.51840000" lon="34.69756000">
        <ele>153.00000</ele>
        <time>2010-01-01T01:14:43Z</time>
      </trkpt>
      <trkpt lat="31.51841000" lon="34.69756000">
        <ele>153.00000</ele>
        <time>2010-01-01T01:14:43Z</time>
      </trkpt>
      <trkpt lat="31.51839000" lon="34.69760000">
        <ele>153.00000</ele>
        <time>2010-01-01T01:14:45Z</time>
      </trkpt>
      <trkpt lat="31.51881000" lon="34.69801000">
        <ele>153.00000</ele>
        <time>2010-01-01T01:15:07Z</time>
      </trkpt>
      <trkpt lat="31.51928000" lon="34.69843000">
        <ele>156.00000</ele>
        <time>2010-01-01T01:15:30Z</time>
      </trkpt>
      <trkpt lat="31.51989000" lon="34.69901000">
        <ele>156.00000</ele>
        <time>2010-01-01T01:16:02Z</time>
      </trkpt>
      <trkpt lat="31.52035000" lon="34.69942000">
        <ele>157.00000</ele>
        <time>2010-01-01T01:16:25Z</time>
      </trkpt>
      <trkpt lat="31.52082000" lon="34.69977000">
        <ele>158.00000</ele>
        <time>2010-01-01T01:16:47Z</time>
      </trkpt>
      <trkpt lat="31.52136000" lon="34.70010000">
        <ele>163.00000</ele>
        <time>2010-01-01T01:17:11Z</time>
      </trkpt>
      <trkpt lat="31.52163000" lon="34.70029000">
        <ele>165.00000</ele>
        <time>2010-01-01T01:17:24Z</time>
      </trkpt>
      <trkpt lat="31.52189000" lon="34.70051000">
        <ele>168.00000</ele>
        <time>2010-01-01T01:17:37Z</time>
      </trkpt>
      <trkpt lat="31.52213000" lon="34.70075000">
        <ele>169.00000</ele>
        <time>2010-01-01T01:17:49Z</time>
      </trkpt>
      <trkpt lat="31.52232000" lon="34.70099000">
        <ele>170.00000</ele>
        <time>2010-01-01T01:18:01Z</time>
      </trkpt>
      <trkpt lat="31.52245000" lon="34.70121000">
        <ele>171.00000</ele>
        <time>2010-01-01T01:18:10Z</time>
      </trkpt>
      <trkpt lat="31.52245000" lon="34.70120000">
        <ele>171.00000</ele>
        <time>2010-01-01T01:18:10Z</time>
      </trkpt>
      <trkpt lat="31.52257000" lon="34.70155000">
        <ele>171.00000</ele>
        <time>2010-01-01T01:18:23Z</time>
      </trkpt>
      <trkpt lat="31.52283000" lon="34.70203000">
        <ele>171.00000</ele>
        <time>2010-01-01T01:18:42Z</time>
      </trkpt>
      <trkpt lat="31.52296000" lon="34.70223000">
        <ele>173.00000</ele>
        <time>2010-01-01T01:18:51Z</time>
      </trkpt>
      <trkpt lat="31.52323000" lon="34.70255000">
        <ele>173.00000</ele>
        <time>2010-01-01T01:19:06Z</time>
      </trkpt>
      <trkpt lat="31.52354000" lon="34.70286000">
        <ele>172.00000</ele>
        <time>2010-01-01T01:19:23Z</time>
      </trkpt>
      <trkpt lat="31.52402000" lon="34.70327000">
        <ele>172.00000</ele>
        <time>2010-01-01T01:19:46Z</time>
      </trkpt>
      <trkpt lat="31.52452000" lon="34.70364000">
        <ele>175.00000</ele>
        <time>2010-01-01T01:20:10Z</time>
      </trkpt>
      <trkpt lat="31.52469000" lon="34.70373000">
        <ele>175.00000</ele>
        <time>2010-01-01T01:20:18Z</time>
      </trkpt>
      <trkpt lat="31.52468000" lon="34.70373000">
        <ele>175.00000</ele>
        <time>2010-01-01T01:20:18Z</time>
      </trkpt>
      <trkpt lat="31.52470000" lon="34.70374000">
        <ele>175.00000</ele>
        <time>2010-01-01T01:20:19Z</time>
      </trkpt>
      <trkpt lat="31.52472000" lon="34.70371000">
        <ele>175.00000</ele>
        <time>2010-01-01T01:20:20Z</time>
      </trkpt>
      <trkpt lat="31.52487000" lon="34.70364000">
        <ele>176.00000</ele>
        <time>2010-01-01T01:20:27Z</time>
      </trkpt>
      <trkpt lat="31.52516000" lon="34.70338000">
        <ele>176.00000</ele>
        <time>2010-01-01T01:20:41Z</time>
      </trkpt>
      <trkpt lat="31.52524000" lon="34.70334000">
        <ele>176.00000</ele>
        <time>2010-01-01T01:20:45Z</time>
      </trkpt>
      <trkpt lat="31.52550000" lon="34.70327000">
        <ele>176.00000</ele>
        <time>2010-01-01T01:20:55Z</time>
      </trkpt>
      <trkpt lat="31.52578000" lon="34.70329000">
        <ele>176.00000</ele>
        <time>2010-01-01T01:21:07Z</time>
      </trkpt>
      <trkpt lat="31.52594000" lon="34.70324000">
        <ele>177.00000</ele>
        <time>2010-01-01T01:21:13Z</time>
      </trkpt>
      <trkpt lat="31.52601000" lon="34.70318000">
        <ele>177.00000</ele>
        <time>2010-01-01T01:21:17Z</time>
      </trkpt>
      <trkpt lat="31.52626000" lon="34.70284000">
        <ele>175.00000</ele>
        <time>2010-01-01T01:21:32Z</time>
      </trkpt>
      <trkpt lat="31.52642000" lon="34.70265000">
        <ele>175.00000</ele>
        <time>2010-01-01T01:21:41Z</time>
      </trkpt>
      <trkpt lat="31.52660000" lon="34.70246000">
        <ele>176.00000</ele>
        <time>2010-01-01T01:21:51Z</time>
      </trkpt>
      <trkpt lat="31.52679000" lon="34.70232000">
        <ele>177.00000</ele>
        <time>2010-01-01T01:22:00Z</time>
      </trkpt>
      <trkpt lat="31.52788000" lon="34.70172000">
        <ele>171.00000</ele>
        <time>2010-01-01T01:22:48Z</time>
      </trkpt>
      <trkpt lat="31.52960000" lon="34.70087000">
        <ele>159.00000</ele>
        <time>2010-01-01T01:24:03Z</time>
      </trkpt>
      <trkpt lat="31.52987000" lon="34.70071000">
        <ele>158.00000</ele>
        <time>2010-01-01T01:24:15Z</time>
      </trkpt>
      <trkpt lat="31.53011000" lon="34.70053000">
        <ele>157.00000</ele>
        <time>2010-01-01T01:24:26Z</time>
      </trkpt>
      <trkpt lat="31.53051000" lon="34.70015000">
        <ele>158.00000</ele>
        <time>2010-01-01T01:24:47Z</time>
      </trkpt>
      <trkpt lat="31.53066000" lon="34.69998000">
        <ele>157.00000</ele>
        <time>2010-01-01T01:24:55Z</time>
      </trkpt>
      <trkpt lat="31.53078000" lon="34.69981000">
        <ele>157.00000</ele>
        <time>2010-01-01T01:25:03Z</time>
      </trkpt>
      <trkpt lat="31.53095000" lon="34.69951000">
        <ele>154.00000</ele>
        <time>2010-01-01T01:25:15Z</time>
      </trkpt>
      <trkpt lat="31.53110000" lon="34.69911000">
        <ele>152.00000</ele>
        <time>2010-01-01T01:25:30Z</time>
      </trkpt>
      <trkpt lat="31.53118000" lon="34.69893000">
        <ele>152.00000</ele>
        <time>2010-01-01T01:25:37Z</time>
      </trkpt>
      <trkpt lat="31.53166000" lon="34.69820000">
        <ele>151.00000</ele>
        <time>2010-01-01T01:26:08Z</time>
      </trkpt>
      <trkpt lat="31.53198000" lon="34.69762000">
        <ele>145.00000</ele>
        <time>2010-01-01T01:26:32Z</time>
      </trkpt>
      <trkpt lat="31.53220000" lon="34.69725000">
        <ele>144.00000</ele>
        <time>2010-01-01T01:26:47Z</time>
      </trkpt>
      <trkpt lat="31.53234000" lon="34.69716000">
        <ele>143.00000</ele>
        <time>2010-01-01T01:26:54Z</time>
      </trkpt>
      <trkpt lat="31.53234000" lon="34.69715000">
        <ele>143.00000</ele>
        <time>2010-01-01T01:26:54Z</time>
      </trkpt>
      <trkpt lat="31.53251000" lon="34.69722000">
        <ele>142.00000</ele>
        <time>2010-01-01T01:27:01Z</time>
      </trkpt>
      <trkpt lat="31.53264000" lon="34.69732000">
        <ele>142.00000</ele>
        <time>2010-01-01T01:27:07Z</time>
      </trkpt>
      <trkpt lat="31.53280000" lon="34.69750000">
        <ele>141.00000</ele>
        <time>2010-01-01T01:27:16Z</time>
      </trkpt>
      <trkpt lat="31.53301000" lon="34.69779000">
        <ele>138.00000</ele>
        <time>2010-01-01T01:27:29Z</time>
      </trkpt>
      <trkpt lat="31.53311000" lon="34.69797000">
        <ele>138.00000</ele>
        <time>2010-01-01T01:27:37Z</time>
      </trkpt>
      <trkpt lat="31.53323000" lon="34.69823000">
        <ele>138.00000</ele>
        <time>2010-01-01T01:27:47Z</time>
      </trkpt>
      <trkpt lat="31.53326000" lon="34.69835000">
        <ele>138.00000</ele>
        <time>2010-01-01T01:27:51Z</time>
      </trkpt>
      <trkpt lat="31.53328000" lon="34.69856000">
        <ele>138.00000</ele>
        <time>2010-01-01T01:27:58Z</time>
      </trkpt>
      <trkpt lat="31.53327000" lon="34.69873000">
        <ele>139.00000</ele>
        <time>2010-01-01T01:28:04Z</time>
      </trkpt>
      <trkpt lat="31.53320000" lon="34.69898000">
        <ele>139.00000</ele>
        <time>2010-01-01T01:28:13Z</time>
      </trkpt>
      <trkpt lat="31.53307000" lon="34.69928000">
        <ele>139.00000</ele>
        <time>2010-01-01T01:28:24Z</time>
      </trkpt>
      <trkpt lat="31.53307000" lon="34.69935000">
        <ele>139.00000</ele>
        <time>2010-01-01T01:28:27Z</time>
      </trkpt>
      <trkpt lat="31.53307000" lon="34.69934000">
        <ele>139.00000</ele>
        <time>2010-01-01T01:28:27Z</time>
      </trkpt>
      <trkpt lat="31.53311000" lon="34.69948000">
        <ele>140.00000</ele>
        <time>2010-01-01T01:28:32Z</time>
      </trkpt>
      <trkpt lat="31.53317000" lon="34.69953000">
        <ele>140.00000</ele>
        <time>2010-01-01T01:28:35Z</time>
      </trkpt>
      <trkpt lat="31.53373000" lon="34.69966000">
        <ele>138.00000</ele>
        <time>2010-01-01T01:28:58Z</time>
      </trkpt>
      <trkpt lat="31.53394000" lon="34.69976000">
        <ele>138.00000</ele>
        <time>2010-01-01T01:29:07Z</time>
      </trkpt>
      <trkpt lat="31.53413000" lon="34.69989000">
        <ele>139.00000</ele>
        <time>2010-01-01T01:29:16Z</time>
      </trkpt>
      <trkpt lat="31.53467000" lon="34.70038000">
        <ele>137.00000</ele>
        <time>2010-01-01T01:29:43Z</time>
      </trkpt>
      <trkpt lat="31.53505000" lon="34.70063000">
        <ele>133.00000</ele>
        <time>2010-01-01T01:30:01Z</time>
      </trkpt>
      <trkpt lat="31.53520000" lon="34.70075000">
        <ele>131.00000</ele>
        <time>2010-01-01T01:30:08Z</time>
      </trkpt>
      <trkpt lat="31.53531000" lon="34.70087000">
        <ele>130.00000</ele>
        <time>2010-01-01T01:30:14Z</time>
      </trkpt>
      <trkpt lat="31.53536000" lon="34.70095000">
        <ele>129.00000</ele>
        <time>2010-01-01T01:30:17Z</time>
      </trkpt>
      <trkpt lat="31.53562000" lon="34.70142000">
        <ele>126.00000</ele>
        <time>2010-01-01T01:30:36Z</time>
      </trkpt>
      <trkpt lat="31.53574000" lon="34.70178000">
        <ele>125.00000</ele>
        <time>2010-01-01T01:30:50Z</time>
      </trkpt>
      <trkpt lat="31.53590000" lon="34.70163000">
        <ele>126.00000</ele>
        <time>2010-01-01T01:30:58Z</time>
      </trkpt>
      <trkpt lat="31.53610000" lon="34.70133000">
        <ele>125.00000</ele>
        <time>2010-01-01T01:31:11Z</time>
      </trkpt>
      <trkpt lat="31.53624000" lon="34.70133000">
        <ele>125.00000</ele>
        <time>2010-01-01T01:31:16Z</time>
      </trkpt>
      <trkpt lat="31.53621000" lon="34.70179000">
        <ele>126.00000</ele>
        <time>2010-01-01T01:31:32Z</time>
      </trkpt>
      <trkpt lat="31.53623000" lon="34.70187000">
        <ele>126.00000</ele>
        <time>2010-01-01T01:31:35Z</time>
      </trkpt>
      <trkpt lat="31.53625000" lon="34.70189000">
        <ele>126.00000</ele>
        <time>2010-01-01T01:31:36Z</time>
      </trkpt>
      <trkpt lat="31.53632000" lon="34.70186000">
        <ele>126.00000</ele>
        <time>2010-01-01T01:31:39Z</time>
      </trkpt>
      <trkpt lat="31.53640000" lon="34.70178000">
        <ele>126.00000</ele>
        <time>2010-01-01T01:31:43Z</time>
      </trkpt>
      <trkpt lat="31.53645000" lon="34.70171000">
        <ele>126.00000</ele>
        <time>2010-01-01T01:31:46Z</time>
      </trkpt>
      <trkpt lat="31.53655000" lon="34.70163000">
        <ele>126.00000</ele>
        <time>2010-01-01T01:31:51Z</time>
      </trkpt>
      <trkpt lat="31.53666000" lon="34.70163000">
        <ele>125.00000</ele>
        <time>2010-01-01T01:31:56Z</time>
      </trkpt>
      <trkpt lat="31.53673000" lon="34.70160000">
        <ele>125.00000</ele>
        <time>2010-01-01T01:31:59Z</time>
      </trkpt>
      <trkpt lat="31.53676000" lon="34.70158000">
        <ele>125.00000</ele>
        <time>2010-01-01T01:32:00Z</time>
      </trkpt>
      <trkpt lat="31.53678000" lon="34.70142000">
        <ele>124.00000</ele>
        <time>2010-01-01T01:32:06Z</time>
      </trkpt>
      <trkpt lat="31.53683000" lon="34.70131000">
        <ele>124.00000</ele>
        <time>2010-01-01T01:32:10Z</time>
      </trkpt>
      <trkpt lat="31.53692000" lon="34.70095000">
        <ele>122.00000</ele>
        <time>2010-01-01T01:32:23Z</time>
      </trkpt>
      <trkpt lat="31.53691000" lon="34.70065000">
        <ele>122.00000</ele>
        <time>2010-01-01T01:32:33Z</time>
      </trkpt>
      <trkpt lat="31.53694000" lon="34.70032000">
        <ele>122.00000</ele>
        <time>2010-01-01T01:32:44Z</time>
      </trkpt>
      <trkpt lat="31.53696000" lon="34.70024000">
        <ele>121.00000</ele>
        <time>2010-01-01T01:32:47Z</time>
      </trkpt>
      <trkpt lat="31.53713000" lon="34.70002000">
        <ele>120.00000</ele>
        <time>2010-01-01T01:32:57Z</time>
      </trkpt>
      <trkpt lat="31.53719000" lon="34.69983000">
        <ele>120.00000</ele>
        <time>2010-01-01T01:33:04Z</time>
      </trkpt>
      <trkpt lat="31.53723000" lon="34.69975000">
        <ele>119.00000</ele>
        <time>2010-01-01T01:33:07Z</time>
      </trkpt>
      <trkpt lat="31.53743000" lon="34.69959000">
        <ele>118.00000</ele>
        <time>2010-01-01T01:33:17Z</time>
      </trkpt>
      <trkpt lat="31.53757000" lon="34.69953000">
        <ele>118.00000</ele>
        <time>2010-01-01T01:33:23Z</time>
      </trkpt>
      <trkpt lat="31.53771000" lon="34.69951000">
        <ele>118.00000</ele>
        <time>2010-01-01T01:33:28Z</time>
      </trkpt>
      <trkpt lat="31.53785000" lon="34.69939000">
        <ele>119.00000</ele>
        <time>2010-01-01T01:33:35Z</time>
      </trkpt>
      <trkpt lat="31.53789000" lon="34.69932000">
        <ele>119.00000</ele>
        <time>2010-01-01T01:33:38Z</time>
      </trkpt>
      <trkpt lat="31.53792000" lon="34.69902000">
        <ele>118.00000</ele>
        <time>2010-01-01T01:33:49Z</time>
      </trkpt>
      <trkpt lat="31.53797000" lon="34.69892000">
        <ele>118.00000</ele>
        <time>2010-01-01T01:33:53Z</time>
      </trkpt>
      <trkpt lat="31.53807000" lon="34.69886000">
        <ele>118.00000</ele>
        <time>2010-01-01T01:33:57Z</time>
      </trkpt>
      <trkpt lat="31.53814000" lon="34.69884000">
        <ele>118.00000</ele>
        <time>2010-01-01T01:34:00Z</time>
      </trkpt>
      <trkpt lat="31.53838000" lon="34.69867000">
        <ele>118.00000</ele>
        <time>2010-01-01T01:34:11Z</time>
      </trkpt>
      <trkpt lat="31.53849000" lon="34.69867000">
        <ele>118.00000</ele>
        <time>2010-01-01T01:34:16Z</time>
      </trkpt>
      <trkpt lat="31.53852000" lon="34.69868000">
        <ele>118.00000</ele>
        <time>2010-01-01T01:34:17Z</time>
      </trkpt>
      <trkpt lat="31.53858000" lon="34.69878000">
        <ele>118.00000</ele>
        <time>2010-01-01T01:34:21Z</time>
      </trkpt>
      <trkpt lat="31.53870000" lon="34.69909000">
        <ele>119.00000</ele>
        <time>2010-01-01T01:34:33Z</time>
      </trkpt>
      <trkpt lat="31.53876000" lon="34.69909000">
        <ele>118.00000</ele>
        <time>2010-01-01T01:34:35Z</time>
      </trkpt>
      <trkpt lat="31.53875000" lon="34.69909000">
        <ele>118.00000</ele>
        <time>2010-01-01T01:34:35Z</time>
      </trkpt>
      <trkpt lat="31.53877000" lon="34.69909000">
        <ele>118.00000</ele>
        <time>2010-01-01T01:34:36Z</time>
      </trkpt>
      <trkpt lat="31.53884000" lon="34.69900000">
        <ele>117.00000</ele>
        <time>2010-01-01T01:34:40Z</time>
      </trkpt>
      <trkpt lat="31.53898000" lon="34.69871000">
        <ele>117.00000</ele>
        <time>2010-01-01T01:34:52Z</time>
      </trkpt>
      <trkpt lat="31.53903000" lon="34.69864000">
        <ele>116.00000</ele>
        <time>2010-01-01T01:34:55Z</time>
      </trkpt>
      <trkpt lat="31.53921000" lon="34.69850000">
        <ele>115.00000</ele>
        <time>2010-01-01T01:35:03Z</time>
      </trkpt>
      <trkpt lat="31.53931000" lon="34.69845000">
        <ele>115.00000</ele>
        <time>2010-01-01T01:35:08Z</time>
      </trkpt>
      <trkpt lat="31.53949000" lon="34.69845000">
        <ele>115.00000</ele>
        <time>2010-01-01T01:35:15Z</time>
      </trkpt>
      <trkpt lat="31.53957000" lon="34.69838000">
        <ele>114.00000</ele>
        <time>2010-01-01T01:35:19Z</time>
      </trkpt>
      <trkpt lat="31.53973000" lon="34.69829000">
        <ele>114.00000</ele>
        <time>2010-01-01T01:35:26Z</time>
      </trkpt>
      <trkpt lat="31.53987000" lon="34.69824000">
        <ele>115.00000</ele>
        <time>2010-01-01T01:35:32Z</time>
      </trkpt>
      <trkpt lat="31.53994000" lon="34.69823000">
        <ele>115.00000</ele>
        <time>2010-01-01T01:35:35Z</time>
      </trkpt>
      <trkpt lat="31.54001000" lon="34.69820000">
        <ele>115.00000</ele>
        <time>2010-01-01T01:35:38Z</time>
      </trkpt>
      <trkpt lat="31.54008000" lon="34.69819000">
        <ele>115.00000</ele>
        <time>2010-01-01T01:35:41Z</time>
      </trkpt>
      <trkpt lat="31.54020000" lon="34.69811000">
        <ele>115.00000</ele>
        <time>2010-01-01T01:35:46Z</time>
      </trkpt>
      <trkpt lat="31.54023000" lon="34.69808000">
        <ele>115.00000</ele>
        <time>2010-01-01T01:35:48Z</time>
      </trkpt>
      <trkpt lat="31.54033000" lon="34.69776000">
        <ele>115.00000</ele>
        <time>2010-01-01T01:35:59Z</time>
      </trkpt>
      <trkpt lat="31.54042000" lon="34.69753000">
        <ele>115.00000</ele>
        <time>2010-01-01T01:36:08Z</time>
      </trkpt>
      <trkpt lat="31.54050000" lon="34.69739000">
        <ele>115.00000</ele>
        <time>2010-01-01T01:36:14Z</time>
      </trkpt>
      <trkpt lat="31.54062000" lon="34.69723000">
        <ele>116.00000</ele>
        <time>2010-01-01T01:36:21Z</time>
      </trkpt>
      <trkpt lat="31.54081000" lon="34.69704000">
        <ele>118.00000</ele>
        <time>2010-01-01T01:36:31Z</time>
      </trkpt>
      <trkpt lat="31.54096000" lon="34.69692000">
        <ele>118.00000</ele>
        <time>2010-01-01T01:36:38Z</time>
      </trkpt>
      <trkpt lat="31.54109000" lon="34.69686000">
        <ele>117.00000</ele>
        <time>2010-01-01T01:36:44Z</time>
      </trkpt>
      <trkpt lat="31.54134000" lon="34.69656000">
        <ele>116.00000</ele>
        <time>2010-01-01T01:36:58Z</time>
      </trkpt>
      <trkpt lat="31.54167000" lon="34.69656000">
        <ele>114.00000</ele>
        <time>2010-01-01T01:37:11Z</time>
      </trkpt>
      <trkpt lat="31.54172000" lon="34.69650000">
        <ele>114.00000</ele>
        <time>2010-01-01T01:37:14Z</time>
      </trkpt>
      <trkpt lat="31.54178000" lon="34.69635000">
        <ele>113.00000</ele>
        <time>2010-01-01T01:37:20Z</time>
      </trkpt>
      <trkpt lat="31.54180000" lon="34.69627000">
        <ele>113.00000</ele>
        <time>2010-01-01T01:37:23Z</time>
      </trkpt>
      <trkpt lat="31.54180000" lon="34.69593000">
        <ele>112.00000</ele>
        <time>2010-01-01T01:37:34Z</time>
      </trkpt>
      <trkpt lat="31.54182000" lon="34.69585000">
        <ele>112.00000</ele>
        <time>2010-01-01T01:37:37Z</time>
      </trkpt>
      <trkpt lat="31.54190000" lon="34.69571000">
        <ele>111.00000</ele>
        <time>2010-01-01T01:37:43Z</time>
      </trkpt>
      <trkpt lat="31.54204000" lon="34.69557000">
        <ele>111.00000</ele>
        <time>2010-01-01T01:37:50Z</time>
      </trkpt>
      <trkpt lat="31.54238000" lon="34.69534000">
        <ele>112.00000</ele>
        <time>2010-01-01T01:38:06Z</time>
      </trkpt>
      <trkpt lat="31.54255000" lon="34.69528000">
        <ele>112.00000</ele>
        <time>2010-01-01T01:38:13Z</time>
      </trkpt>
      <trkpt lat="31.54312000" lon="34.69528000">
        <ele>110.00000</ele>
        <time>2010-01-01T01:38:36Z</time>
      </trkpt>
      <trkpt lat="31.54391000" lon="34.69527000">
        <ele>111.00000</ele>
        <time>2010-01-01T01:39:08Z</time>
      </trkpt>
      <trkpt lat="31.54415000" lon="34.69518000">
        <ele>113.00000</ele>
        <time>2010-01-01T01:39:18Z</time>
      </trkpt>
      <trkpt lat="31.54428000" lon="34.69511000">
        <ele>113.00000</ele>
        <time>2010-01-01T01:39:23Z</time>
      </trkpt>
      <trkpt lat="31.54444000" lon="34.69480000">
        <ele>111.00000</ele>
        <time>2010-01-01T01:39:36Z</time>
      </trkpt>
      <trkpt lat="31.54463000" lon="34.69459000">
        <ele>108.00000</ele>
        <time>2010-01-01T01:39:46Z</time>
      </trkpt>
      <trkpt lat="31.54462000" lon="34.69459000">
        <ele>108.00000</ele>
        <time>2010-01-01T01:39:47Z</time>
      </trkpt>
      <trkpt lat="31.54492000" lon="34.69466000">
        <ele>107.00000</ele>
        <time>2010-01-01T01:39:59Z</time>
      </trkpt>
      <trkpt lat="31.54506000" lon="34.69502000">
        <ele>109.00000</ele>
        <time>2010-01-01T01:40:12Z</time>
      </trkpt>
      <trkpt lat="31.54517000" lon="34.69501000">
        <ele>109.00000</ele>
        <time>2010-01-01T01:40:17Z</time>
      </trkpt>
      <trkpt lat="31.54529000" lon="34.69494000">
        <ele>108.00000</ele>
        <time>2010-01-01T01:40:22Z</time>
      </trkpt>
      <trkpt lat="31.54544000" lon="34.69475000">
        <ele>108.00000</ele>
        <time>2010-01-01T01:40:31Z</time>
      </trkpt>
      <trkpt lat="31.54557000" lon="34.69468000">
        <ele>109.00000</ele>
        <time>2010-01-01T01:40:37Z</time>
      </trkpt>
      <trkpt lat="31.54585000" lon="34.69477000">
        <ele>107.00000</ele>
        <time>2010-01-01T01:40:48Z</time>
      </trkpt>
      <trkpt lat="31.54604000" lon="34.69489000">
        <ele>106.00000</ele>
        <time>2010-01-01T01:40:57Z</time>
      </trkpt>
      <trkpt lat="31.54631000" lon="34.69497000">
        <ele>105.00000</ele>
        <time>2010-01-01T01:41:08Z</time>
      </trkpt>
      <trkpt lat="31.54649000" lon="34.69498000">
        <ele>105.00000</ele>
        <time>2010-01-01T01:41:15Z</time>
      </trkpt>
      <trkpt lat="31.54682000" lon="34.69514000">
        <ele>106.00000</ele>
        <time>2010-01-01T01:41:30Z</time>
      </trkpt>
      <trkpt lat="31.54693000" lon="34.69514000">
        <ele>106.00000</ele>
        <time>2010-01-01T01:41:34Z</time>
      </trkpt>
      <trkpt lat="31.54702000" lon="34.69506000">
        <ele>106.00000</ele>
        <time>2010-01-01T01:41:39Z</time>
      </trkpt>
      <trkpt lat="31.54709000" lon="34.69497000">
        <ele>106.00000</ele>
        <time>2010-01-01T01:41:43Z</time>
      </trkpt>
      <trkpt lat="31.54723000" lon="34.69466000">
        <ele>105.00000</ele>
        <time>2010-01-01T01:41:55Z</time>
      </trkpt>
      <trkpt lat="31.54728000" lon="34.69462000">
        <ele>105.00000</ele>
        <time>2010-01-01T01:41:57Z</time>
      </trkpt>
      <trkpt lat="31.54747000" lon="34.69451000">
        <ele>104.00000</ele>
        <time>2010-01-01T01:42:06Z</time>
      </trkpt>
      <trkpt lat="31.54782000" lon="34.69445000">
        <ele>104.00000</ele>
        <time>2010-01-01T01:42:20Z</time>
      </trkpt>
      <trkpt lat="31.54810000" lon="34.69436000">
        <ele>104.00000</ele>
        <time>2010-01-01T01:42:31Z</time>
      </trkpt>
      <trkpt lat="31.54816000" lon="34.69432000">
        <ele>104.00000</ele>
        <time>2010-01-01T01:42:34Z</time>
      </trkpt>
      <trkpt lat="31.54831000" lon="34.69415000">
        <ele>103.00000</ele>
        <time>2010-01-01T01:42:42Z</time>
      </trkpt>
      <trkpt lat="31.54836000" lon="34.69403000">
        <ele>103.00000</ele>
        <time>2010-01-01T01:42:47Z</time>
      </trkpt>
      <trkpt lat="31.54843000" lon="34.69402000">
        <ele>103.00000</ele>
        <time>2010-01-01T01:42:50Z</time>
      </trkpt>
      <trkpt lat="31.54849000" lon="34.69398000">
        <ele>103.00000</ele>
        <time>2010-01-01T01:42:53Z</time>
      </trkpt>
      <trkpt lat="31.54859000" lon="34.69381000">
        <ele>104.00000</ele>
        <time>2010-01-01T01:43:00Z</time>
      </trkpt>
      <trkpt lat="31.54885000" lon="34.69358000">
        <ele>105.00000</ele>
        <time>2010-01-01T01:43:13Z</time>
      </trkpt>
      <trkpt lat="31.54912000" lon="34.69330000">
        <ele>103.00000</ele>
        <time>2010-01-01T01:43:27Z</time>
      </trkpt>
      <trkpt lat="31.54930000" lon="34.69316000">
        <ele>101.00000</ele>
        <time>2010-01-01T01:43:36Z</time>
      </trkpt>
      <trkpt lat="31.54949000" lon="34.69291000">
        <ele>101.00000</ele>
        <time>2010-01-01T01:43:47Z</time>
      </trkpt>
      <trkpt lat="31.54960000" lon="34.69274000">
        <ele>102.00000</ele>
        <time>2010-01-01T01:43:54Z</time>
      </trkpt>
      <trkpt lat="31.54965000" lon="34.69259000">
        <ele>102.00000</ele>
        <time>2010-01-01T01:44:00Z</time>
      </trkpt>
      <trkpt lat="31.54966000" lon="34.69242000">
        <ele>102.00000</ele>
        <time>2010-01-01T01:44:06Z</time>
      </trkpt>
      <trkpt lat="31.54969000" lon="34.69225000">
        <ele>102.00000</ele>
        <time>2010-01-01T01:44:12Z</time>
      </trkpt>
      <trkpt lat="31.54978000" lon="34.69208000">
        <ele>101.00000</ele>
        <time>2010-01-01T01:44:18Z</time>
      </trkpt>
      <trkpt lat="31.54989000" lon="34.69196000">
        <ele>101.00000</ele>
        <time>2010-01-01T01:44:24Z</time>
      </trkpt>
      <trkpt lat="31.55005000" lon="34.69188000">
        <ele>101.00000</ele>
        <time>2010-01-01T01:44:31Z</time>
      </trkpt>
      <trkpt lat="31.55016000" lon="34.69187000">
        <ele>101.00000</ele>
        <time>2010-01-01T01:44:36Z</time>
      </trkpt>
      <trkpt lat="31.55023000" lon="34.69184000">
        <ele>102.00000</ele>
        <time>2010-01-01T01:44:39Z</time>
      </trkpt>
      <trkpt lat="31.55043000" lon="34.69184000">
        <ele>102.00000</ele>
        <time>2010-01-01T01:44:47Z</time>
      </trkpt>
      <trkpt lat="31.55044000" lon="34.69184000">
        <ele>102.00000</ele>
        <time>2010-01-01T01:44:47Z</time>
      </trkpt>
      <trkpt lat="31.55067000" lon="34.69163000">
        <ele>102.00000</ele>
        <time>2010-01-01T01:44:59Z</time>
      </trkpt>
      <trkpt lat="31.55090000" lon="34.69152000">
        <ele>100.00000</ele>
        <time>2010-01-01T01:45:09Z</time>
      </trkpt>
      <trkpt lat="31.55121000" lon="34.69133000">
        <ele>98.000000</ele>
        <time>2010-01-01T01:45:23Z</time>
      </trkpt>
      <trkpt lat="31.55141000" lon="34.69123000">
        <ele>96.000000</ele>
        <time>2010-01-01T01:45:32Z</time>
      </trkpt>
      <trkpt lat="31.55154000" lon="34.69115000">
        <ele>96.000000</ele>
        <time>2010-01-01T01:45:37Z</time>
      </trkpt>
      <trkpt lat="31.55162000" lon="34.69107000">
        <ele>96.000000</ele>
        <time>2010-01-01T01:45:42Z</time>
      </trkpt>
      <trkpt lat="31.55170000" lon="34.69093000">
        <ele>95.000000</ele>
        <time>2010-01-01T01:45:47Z</time>
      </trkpt>
      <trkpt lat="31.55188000" lon="34.69052000">
        <ele>97.000000</ele>
        <time>2010-01-01T01:46:03Z</time>
      </trkpt>
      <trkpt lat="31.55202000" lon="34.69033000">
        <ele>97.000000</ele>
        <time>2010-01-01T01:46:12Z</time>
      </trkpt>
      <trkpt lat="31.55214000" lon="34.69012000">
        <ele>98.000000</ele>
        <time>2010-01-01T01:46:20Z</time>
      </trkpt>
      <trkpt lat="31.55223000" lon="34.68976000">
        <ele>98.000000</ele>
        <time>2010-01-01T01:46:33Z</time>
      </trkpt>
      <trkpt lat="31.55228000" lon="34.68963000">
        <ele>98.000000</ele>
        <time>2010-01-01T01:46:38Z</time>
      </trkpt>
      <trkpt lat="31.55236000" lon="34.68947000">
        <ele>98.000000</ele>
        <time>2010-01-01T01:46:44Z</time>
      </trkpt>
      <trkpt lat="31.55248000" lon="34.68931000">
        <ele>98.000000</ele>
        <time>2010-01-01T01:46:52Z</time>
      </trkpt>
      <trkpt lat="31.55259000" lon="34.68902000">
        <ele>97.000000</ele>
        <time>2010-01-01T01:47:02Z</time>
      </trkpt>
      <trkpt lat="31.55258000" lon="34.68896000">
        <ele>97.000000</ele>
        <time>2010-01-01T01:47:05Z</time>
      </trkpt>
      <trkpt lat="31.55255000" lon="34.68890000">
        <ele>98.000000</ele>
        <time>2010-01-01T01:47:07Z</time>
      </trkpt>
      <trkpt lat="31.55245000" lon="34.68879000">
        <ele>99.000000</ele>
        <time>2010-01-01T01:47:12Z</time>
      </trkpt>
      <trkpt lat="31.55244000" lon="34.68869000">
        <ele>99.000000</ele>
        <time>2010-01-01T01:47:16Z</time>
      </trkpt>
      <trkpt lat="31.55246000" lon="34.68863000">
        <ele>99.000000</ele>
        <time>2010-01-01T01:47:18Z</time>
      </trkpt>
      <trkpt lat="31.55257000" lon="34.68852000">
        <ele>98.000000</ele>
        <time>2010-01-01T01:47:24Z</time>
      </trkpt>
      <trkpt lat="31.55262000" lon="34.68844000">
        <ele>97.000000</ele>
        <time>2010-01-01T01:47:27Z</time>
      </trkpt>
      <trkpt lat="31.55270000" lon="34.68822000">
        <ele>97.000000</ele>
        <time>2010-01-01T01:47:35Z</time>
      </trkpt>
      <trkpt lat="31.55287000" lon="34.68798000">
        <ele>96.000000</ele>
        <time>2010-01-01T01:47:46Z</time>
      </trkpt>
      <trkpt lat="31.55292000" lon="34.68782000">
        <ele>95.000000</ele>
        <time>2010-01-01T01:47:52Z</time>
      </trkpt>
      <trkpt lat="31.55292000" lon="34.68772000">
        <ele>96.000000</ele>
        <time>2010-01-01T01:47:55Z</time>
      </trkpt>
      <trkpt lat="31.55299000" lon="34.68748000">
        <ele>96.000000</ele>
        <time>2010-01-01T01:48:04Z</time>
      </trkpt>
      <trkpt lat="31.55300000" lon="34.68727000">
        <ele>95.000000</ele>
        <time>2010-01-01T01:48:11Z</time>
      </trkpt>
      <trkpt lat="31.55304000" lon="34.68711000">
        <ele>95.000000</ele>
        <time>2010-01-01T01:48:17Z</time>
      </trkpt>
      <trkpt lat="31.55326000" lon="34.68666000">
        <ele>94.000000</ele>
        <time>2010-01-01T01:48:34Z</time>
      </trkpt>
      <trkpt lat="31.55336000" lon="34.68641000">
        <ele>93.000000</ele>
        <time>2010-01-01T01:48:44Z</time>
      </trkpt>
      <trkpt lat="31.55336000" lon="34.68624000">
        <ele>92.000000</ele>
        <time>2010-01-01T01:48:50Z</time>
      </trkpt>
      <trkpt lat="31.55340000" lon="34.68614000">
        <ele>91.000000</ele>
        <time>2010-01-01T01:48:53Z</time>
      </trkpt>
      <trkpt lat="31.55340000" lon="34.68562000">
        <ele>90.000000</ele>
        <time>2010-01-01T01:49:11Z</time>
      </trkpt>
      <trkpt lat="31.55347000" lon="34.68536000">
        <ele>91.000000</ele>
        <time>2010-01-01T01:49:20Z</time>
      </trkpt>
      <trkpt lat="31.55346000" lon="34.68498000">
        <ele>92.000000</ele>
        <time>2010-01-01T01:49:33Z</time>
      </trkpt>
      <trkpt lat="31.55312000" lon="34.68464000">
        <ele>92.000000</ele>
        <time>2010-01-01T01:49:51Z</time>
      </trkpt>
      <trkpt lat="31.55310000" lon="34.68446000">
        <ele>93.000000</ele>
        <time>2010-01-01T01:49:57Z</time>
      </trkpt>
      <trkpt lat="31.55306000" lon="34.68432000">
        <ele>93.000000</ele>
        <time>2010-01-01T01:50:03Z</time>
      </trkpt>
      <trkpt lat="31.55304000" lon="34.68427000">
        <ele>93.000000</ele>
        <time>2010-01-01T01:50:04Z</time>
      </trkpt>
      <trkpt lat="31.55302000" lon="34.68416000">
        <ele>93.000000</ele>
        <time>2010-01-01T01:50:08Z</time>
      </trkpt>
      <trkpt lat="31.55302000" lon="34.68415000">
        <ele>93.000000</ele>
        <time>2010-01-01T01:50:09Z</time>
      </trkpt>
      <trkpt lat="31.55301000" lon="34.68412000">
        <ele>93.000000</ele>
        <time>2010-01-01T01:50:10Z</time>
      </trkpt>
      <trkpt lat="31.55305000" lon="34.68401000">
        <ele>93.000000</ele>
        <time>2010-01-01T01:50:14Z</time>
      </trkpt>
      <trkpt lat="31.55313000" lon="34.68389000">
        <ele>93.000000</ele>
        <time>2010-01-01T01:50:19Z</time>
      </trkpt>
      <trkpt lat="31.55317000" lon="34.68380000">
        <ele>92.000000</ele>
        <time>2010-01-01T01:50:22Z</time>
      </trkpt>
      <trkpt lat="31.55325000" lon="34.68354000">
        <ele>91.000000</ele>
        <time>2010-01-01T01:50:32Z</time>
      </trkpt>
      <trkpt lat="31.55347000" lon="34.68297000">
        <ele>92.000000</ele>
        <time>2010-01-01T01:50:53Z</time>
      </trkpt>
      <trkpt lat="31.55349000" lon="34.68280000">
        <ele>92.000000</ele>
        <time>2010-01-01T01:50:59Z</time>
      </trkpt>
      <trkpt lat="31.55342000" lon="34.68248000">
        <ele>91.000000</ele>
        <time>2010-01-01T01:51:10Z</time>
      </trkpt>
      <trkpt lat="31.55345000" lon="34.68218000">
        <ele>89.000000</ele>
        <time>2010-01-01T01:51:21Z</time>
      </trkpt>
      <trkpt lat="31.55345000" lon="34.68189000">
        <ele>88.000000</ele>
        <time>2010-01-01T01:51:31Z</time>
      </trkpt>
      <trkpt lat="31.55347000" lon="34.68147000">
        <ele>86.000000</ele>
        <time>2010-01-01T01:51:45Z</time>
      </trkpt>
      <trkpt lat="31.55338000" lon="34.68106000">
        <ele>86.000000</ele>
        <time>2010-01-01T01:51:59Z</time>
      </trkpt>
      <trkpt lat="31.55335000" lon="34.68072000">
        <ele>86.000000</ele>
        <time>2010-01-01T01:52:11Z</time>
      </trkpt>
      <trkpt lat="31.55333000" lon="34.68064000">
        <ele>85.000000</ele>
        <time>2010-01-01T01:52:14Z</time>
      </trkpt>
      <trkpt lat="31.55321000" lon="34.68049000">
        <ele>84.000000</ele>
        <time>2010-01-01T01:52:21Z</time>
      </trkpt>
      <trkpt lat="31.55308000" lon="34.68029000">
        <ele>84.000000</ele>
        <time>2010-01-01T01:52:29Z</time>
      </trkpt>
      <trkpt lat="31.55305000" lon="34.68021000">
        <ele>83.000000</ele>
        <time>2010-01-01T01:52:32Z</time>
      </trkpt>
      <trkpt lat="31.55303000" lon="34.68004000">
        <ele>83.000000</ele>
        <time>2010-01-01T01:52:38Z</time>
      </trkpt>
      <trkpt lat="31.55299000" lon="34.67997000">
        <ele>83.000000</ele>
        <time>2010-01-01T01:52:41Z</time>
      </trkpt>
      <trkpt lat="31.55296000" lon="34.67994000">
        <ele>83.000000</ele>
        <time>2010-01-01T01:52:43Z</time>
      </trkpt>
      <trkpt lat="31.55295000" lon="34.67994000">
        <ele>83.000000</ele>
        <time>2010-01-01T01:52:43Z</time>
      </trkpt>
      <trkpt lat="31.55290000" lon="34.67990000">
        <ele>83.000000</ele>
        <time>2010-01-01T01:52:46Z</time>
      </trkpt>
      <trkpt lat="31.55273000" lon="34.67989000">
        <ele>83.000000</ele>
        <time>2010-01-01T01:52:52Z</time>
      </trkpt>
      <trkpt lat="31.55266000" lon="34.67985000">
        <ele>83.000000</ele>
        <time>2010-01-01T01:52:55Z</time>
      </trkpt>
      <trkpt lat="31.55256000" lon="34.67973000">
        <ele>83.000000</ele>
        <time>2010-01-01T01:53:01Z</time>
      </trkpt>
      <trkpt lat="31.55246000" lon="34.67946000">
        <ele>81.000000</ele>
        <time>2010-01-01T01:53:11Z</time>
      </trkpt>
      <trkpt lat="31.55241000" lon="34.67917000">
        <ele>80.000000</ele>
        <time>2010-01-01T01:53:21Z</time>
      </trkpt>
      <trkpt lat="31.55237000" lon="34.67905000">
        <ele>80.000000</ele>
        <time>2010-01-01T01:53:26Z</time>
      </trkpt>
      <trkpt lat="31.55234000" lon="34.67898000">
        <ele>79.000000</ele>
        <time>2010-01-01T01:53:28Z</time>
      </trkpt>
      <trkpt lat="31.55217000" lon="34.67890000">
        <ele>80.000000</ele>
        <time>2010-01-01T01:53:36Z</time>
      </trkpt>
      <trkpt lat="31.55208000" lon="34.67883000">
        <ele>80.000000</ele>
        <time>2010-01-01T01:53:40Z</time>
      </trkpt>
      <trkpt lat="31.55201000" lon="34.67882000">
        <ele>80.000000</ele>
        <time>2010-01-01T01:53:43Z</time>
      </trkpt>
      <trkpt lat="31.55185000" lon="34.67874000">
        <ele>81.000000</ele>
        <time>2010-01-01T01:53:50Z</time>
      </trkpt>
      <trkpt lat="31.55167000" lon="34.67873000">
        <ele>82.000000</ele>
        <time>2010-01-01T01:53:57Z</time>
      </trkpt>
      <trkpt lat="31.55150000" lon="34.67865000">
        <ele>83.000000</ele>
        <time>2010-01-01T01:54:04Z</time>
      </trkpt>
      <trkpt lat="31.55132000" lon="34.67864000">
        <ele>82.000000</ele>
        <time>2010-01-01T01:54:12Z</time>
      </trkpt>
      <trkpt lat="31.55123000" lon="34.67858000">
        <ele>82.000000</ele>
        <time>2010-01-01T01:54:16Z</time>
      </trkpt>
      <trkpt lat="31.55092000" lon="34.67848000">
        <ele>81.000000</ele>
        <time>2010-01-01T01:54:29Z</time>
      </trkpt>
      <trkpt lat="31.55073000" lon="34.67837000">
        <ele>81.000000</ele>
        <time>2010-01-01T01:54:37Z</time>
      </trkpt>
      <trkpt lat="31.55058000" lon="34.67835000">
        <ele>81.000000</ele>
        <time>2010-01-01T01:54:43Z</time>
      </trkpt>
      <trkpt lat="31.55055000" lon="34.67833000">
        <ele>80.000000</ele>
        <time>2010-01-01T01:54:44Z</time>
      </trkpt>
      <trkpt lat="31.55040000" lon="34.67810000">
        <ele>79.000000</ele>
        <time>2010-01-01T01:54:54Z</time>
      </trkpt>
      <trkpt lat="31.55027000" lon="34.67803000">
        <ele>77.000000</ele>
        <time>2010-01-01T01:55:00Z</time>
      </trkpt>
      <trkpt lat="31.55022000" lon="34.67798000">
        <ele>77.000000</ele>
        <time>2010-01-01T01:55:03Z</time>
      </trkpt>
      <trkpt lat="31.55014000" lon="34.67786000">
        <ele>77.000000</ele>
        <time>2010-01-01T01:55:08Z</time>
      </trkpt>
      <trkpt lat="31.55015000" lon="34.67783000">
        <ele>77.000000</ele>
        <time>2010-01-01T01:55:09Z</time>
      </trkpt>
      <trkpt lat="31.55014000" lon="34.67786000">
        <ele>77.000000</ele>
        <time>2010-01-01T01:55:10Z</time>
      </trkpt>
      <trkpt lat="31.55000000" lon="34.67764000">
        <ele>78.000000</ele>
        <time>2010-01-01T01:55:19Z</time>
      </trkpt>
      <trkpt lat="31.54982000" lon="34.67743000">
        <ele>79.000000</ele>
        <time>2010-01-01T01:55:30Z</time>
      </trkpt>
      <trkpt lat="31.54972000" lon="34.67721000">
        <ele>79.000000</ele>
        <time>2010-01-01T01:55:38Z</time>
      </trkpt>
      <trkpt lat="31.54972000" lon="34.67691000">
        <ele>79.000000</ele>
        <time>2010-01-01T01:55:48Z</time>
      </trkpt>
      <trkpt lat="31.54970000" lon="34.67683000">
        <ele>79.000000</ele>
        <time>2010-01-01T01:55:51Z</time>
      </trkpt>
      <trkpt lat="31.54966000" lon="34.67676000">
        <ele>79.000000</ele>
        <time>2010-01-01T01:55:54Z</time>
      </trkpt>
      <trkpt lat="31.54958000" lon="34.67667000">
        <ele>80.000000</ele>
        <time>2010-01-01T01:55:59Z</time>
      </trkpt>
      <trkpt lat="31.54938000" lon="34.67649000">
        <ele>80.000000</ele>
        <time>2010-01-01T01:56:09Z</time>
      </trkpt>
      <trkpt lat="31.54923000" lon="34.67644000">
        <ele>81.000000</ele>
        <time>2010-01-01T01:56:15Z</time>
      </trkpt>
      <trkpt lat="31.54913000" lon="34.67631000">
        <ele>81.000000</ele>
        <time>2010-01-01T01:56:21Z</time>
      </trkpt>
      <trkpt lat="31.54904000" lon="34.67599000">
        <ele>80.000000</ele>
        <time>2010-01-01T01:56:32Z</time>
      </trkpt>
      <trkpt lat="31.54902000" lon="34.67573000">
        <ele>79.000000</ele>
        <time>2010-01-01T01:56:41Z</time>
      </trkpt>
      <trkpt lat="31.54906000" lon="34.67536000">
        <ele>78.000000</ele>
        <time>2010-01-01T01:56:54Z</time>
      </trkpt>
      <trkpt lat="31.54921000" lon="34.67492000">
        <ele>79.000000</ele>
        <time>2010-01-01T01:57:10Z</time>
      </trkpt>
      <trkpt lat="31.54928000" lon="34.67459000">
        <ele>78.000000</ele>
        <time>2010-01-01T01:57:22Z</time>
      </trkpt>
      <trkpt lat="31.54927000" lon="34.67443000">
        <ele>78.000000</ele>
        <time>2010-01-01T01:57:27Z</time>
      </trkpt>
      <trkpt lat="31.54923000" lon="34.67409000">
        <ele>76.000000</ele>
        <time>2010-01-01T01:57:39Z</time>
      </trkpt>
      <trkpt lat="31.54916000" lon="34.67376000">
        <ele>75.000000</ele>
        <time>2010-01-01T01:57:51Z</time>
      </trkpt>
      <trkpt lat="31.54907000" lon="34.67349000">
        <ele>75.000000</ele>
        <time>2010-01-01T01:58:00Z</time>
      </trkpt>
      <trkpt lat="31.54899000" lon="34.67330000">
        <ele>75.000000</ele>
        <time>2010-01-01T01:58:08Z</time>
      </trkpt>
      <trkpt lat="31.54866000" lon="34.67279000">
        <ele>75.000000</ele>
        <time>2010-01-01T01:58:29Z</time>
      </trkpt>
      <trkpt lat="31.54853000" lon="34.67254000">
        <ele>75.000000</ele>
        <time>2010-01-01T01:58:39Z</time>
      </trkpt>
      <trkpt lat="31.54834000" lon="34.67229000">
        <ele>75.000000</ele>
        <time>2010-01-01T01:58:51Z</time>
      </trkpt>
      <trkpt lat="31.54828000" lon="34.67218000">
        <ele>74.000000</ele>
        <time>2010-01-01T01:58:55Z</time>
      </trkpt>
      <trkpt lat="31.54820000" lon="34.67196000">
        <ele>74.000000</ele>
        <time>2010-01-01T01:59:04Z</time>
      </trkpt>
      <trkpt lat="31.54820000" lon="34.67195000">
        <ele>74.000000</ele>
        <time>2010-01-01T01:59:04Z</time>
      </trkpt>
      <trkpt lat="31.54813000" lon="34.67175000">
        <ele>74.000000</ele>
        <time>2010-01-01T01:59:11Z</time>
      </trkpt>
      <trkpt lat="31.54809000" lon="34.67154000">
        <ele>74.000000</ele>
        <time>2010-01-01T01:59:19Z</time>
      </trkpt>
      <trkpt lat="31.54810000" lon="34.67133000">
        <ele>74.000000</ele>
        <time>2010-01-01T01:59:26Z</time>
      </trkpt>
      <trkpt lat="31.54821000" lon="34.67107000">
        <ele>73.000000</ele>
        <time>2010-01-01T01:59:36Z</time>
      </trkpt>
      <trkpt lat="31.54831000" lon="34.67089000">
        <ele>73.000000</ele>
        <time>2010-01-01T01:59:43Z</time>
      </trkpt>
      <trkpt lat="31.54841000" lon="34.67077000">
        <ele>74.000000</ele>
        <time>2010-01-01T01:59:49Z</time>
      </trkpt>
      <trkpt lat="31.54868000" lon="34.67056000">
        <ele>75.000000</ele>
        <time>2010-01-01T02:00:02Z</time>
      </trkpt>
      <trkpt lat="31.54880000" lon="34.67040000">
        <ele>74.000000</ele>
        <time>2010-01-01T02:00:09Z</time>
      </trkpt>
      <trkpt lat="31.54890000" lon="34.67022000">
        <ele>74.000000</ele>
        <time>2010-01-01T02:00:16Z</time>
      </trkpt>
      <trkpt lat="31.54896000" lon="34.66998000">
        <ele>74.000000</ele>
        <time>2010-01-01T02:00:25Z</time>
      </trkpt>
      <trkpt lat="31.54899000" lon="34.66964000">
        <ele>75.000000</ele>
        <time>2010-01-01T02:00:36Z</time>
      </trkpt>
      <trkpt lat="31.54898000" lon="34.66930000">
        <ele>73.000000</ele>
        <time>2010-01-01T02:00:48Z</time>
      </trkpt>
      <trkpt lat="31.54892000" lon="34.66893000">
        <ele>72.000000</ele>
        <time>2010-01-01T02:01:01Z</time>
      </trkpt>
      <trkpt lat="31.54880000" lon="34.66849000">
        <ele>72.000000</ele>
        <time>2010-01-01T02:01:17Z</time>
      </trkpt>
      <trkpt lat="31.54875000" lon="34.66828000">
        <ele>73.000000</ele>
        <time>2010-01-01T02:01:24Z</time>
      </trkpt>
      <trkpt lat="31.54874000" lon="34.66807000">
        <ele>74.000000</ele>
        <time>2010-01-01T02:01:31Z</time>
      </trkpt>
      <trkpt lat="31.54876000" lon="34.66769000">
        <ele>74.000000</ele>
        <time>2010-01-01T02:01:44Z</time>
      </trkpt>
      <trkpt lat="31.54875000" lon="34.66752000">
        <ele>75.000000</ele>
        <time>2010-01-01T02:01:50Z</time>
      </trkpt>
      <trkpt lat="31.54864000" lon="34.66716000">
        <ele>74.000000</ele>
        <time>2010-01-01T02:02:03Z</time>
      </trkpt>
      <trkpt lat="31.54814000" lon="34.66595000">
        <ele>75.000000</ele>
        <time>2010-01-01T02:02:49Z</time>
      </trkpt>
      <trkpt lat="31.54805000" lon="34.66562000">
        <ele>73.000000</ele>
        <time>2010-01-01T02:03:01Z</time>
      </trkpt>
      <trkpt lat="31.54801000" lon="34.66537000">
        <ele>71.000000</ele>
        <time>2010-01-01T02:03:10Z</time>
      </trkpt>
      <trkpt lat="31.54792000" lon="34.66505000">
        <ele>71.000000</ele>
        <time>2010-01-01T02:03:21Z</time>
      </trkpt>
      <trkpt lat="31.54787000" lon="34.66494000">
        <ele>71.000000</ele>
        <time>2010-01-01T02:03:25Z</time>
      </trkpt>
      <trkpt lat="31.54787000" lon="34.66493000">
        <ele>71.000000</ele>
        <time>2010-01-01T02:03:26Z</time>
      </trkpt>
      <trkpt lat="31.54770000" lon="34.66461000">
        <ele>73.000000</ele>
        <time>2010-01-01T02:03:38Z</time>
      </trkpt>
      <trkpt lat="31.54755000" lon="34.66409000">
        <ele>71.000000</ele>
        <time>2010-01-01T02:03:57Z</time>
      </trkpt>
      <trkpt lat="31.54738000" lon="34.66363000">
        <ele>71.000000</ele>
        <time>2010-01-01T02:04:14Z</time>
      </trkpt>
      <trkpt lat="31.54734000" lon="34.66342000">
        <ele>72.000000</ele>
        <time>2010-01-01T02:04:22Z</time>
      </trkpt>
      <trkpt lat="31.54733000" lon="34.66279000">
        <ele>71.000000</ele>
        <time>2010-01-01T02:04:43Z</time>
      </trkpt>
      <trkpt lat="31.54727000" lon="34.66254000">
        <ele>69.000000</ele>
        <time>2010-01-01T02:04:52Z</time>
      </trkpt>
      <trkpt lat="31.54695000" lon="34.66199000">
        <ele>69.000000</ele>
        <time>2010-01-01T02:05:15Z</time>
      </trkpt>
      <trkpt lat="31.54695000" lon="34.66198000">
        <ele>69.000000</ele>
        <time>2010-01-01T02:05:15Z</time>
      </trkpt>
      <trkpt lat="31.54693000" lon="34.66195000">
        <ele>69.000000</ele>
        <time>2010-01-01T02:05:16Z</time>
      </trkpt>
      <trkpt lat="31.54685000" lon="34.66191000">
        <ele>69.000000</ele>
        <time>2010-01-01T02:05:20Z</time>
      </trkpt>
      <trkpt lat="31.54678000" lon="34.66182000">
        <ele>69.000000</ele>
        <time>2010-01-01T02:05:24Z</time>
      </trkpt>
      <trkpt lat="31.54672000" lon="34.66165000">
        <ele>69.000000</ele>
        <time>2010-01-01T02:05:30Z</time>
      </trkpt>
      <trkpt lat="31.54667000" lon="34.66160000">
        <ele>69.000000</ele>
        <time>2010-01-01T02:05:33Z</time>
      </trkpt>
      <trkpt lat="31.54658000" lon="34.66155000">
        <ele>70.000000</ele>
        <time>2010-01-01T02:05:37Z</time>
      </trkpt>
      <trkpt lat="31.54636000" lon="34.66153000">
        <ele>69.000000</ele>
        <time>2010-01-01T02:05:46Z</time>
      </trkpt>
      <trkpt lat="31.54620000" lon="34.66160000">
        <ele>69.000000</ele>
        <time>2010-01-01T02:05:53Z</time>
      </trkpt>
      <trkpt lat="31.54529000" lon="34.66182000">
        <ele>72.000000</ele>
        <time>2010-01-01T02:06:30Z</time>
      </trkpt>
      <trkpt lat="31.54505000" lon="34.66192000">
        <ele>72.000000</ele>
        <time>2010-01-01T02:06:40Z</time>
      </trkpt>
      <trkpt lat="31.54483000" lon="34.66204000">
        <ele>72.000000</ele>
        <time>2010-01-01T02:06:50Z</time>
      </trkpt>
      <trkpt lat="31.54473000" lon="34.66208000">
        <ele>72.000000</ele>
        <time>2010-01-01T02:06:54Z</time>
      </trkpt>
      <trkpt lat="31.54443000" lon="34.66212000">
        <ele>72.000000</ele>
        <time>2010-01-01T02:07:06Z</time>
      </trkpt>
      <trkpt lat="31.54403000" lon="34.66205000">
        <ele>73.000000</ele>
        <time>2010-01-01T02:07:22Z</time>
      </trkpt>
      <trkpt lat="31.54401000" lon="34.66209000">
        <ele>73.000000</ele>
        <time>2010-01-01T02:07:24Z</time>
      </trkpt>
      <trkpt lat="31.54400000" lon="34.66229000">
        <ele>73.000000</ele>
        <time>2010-01-01T02:07:31Z</time>
      </trkpt>
      <trkpt lat="31.54396000" lon="34.66236000">
        <ele>72.000000</ele>
        <time>2010-01-01T02:07:33Z</time>
      </trkpt>
      <trkpt lat="31.54364000" lon="34.66271000">
        <ele>71.000000</ele>
        <time>2010-01-01T02:07:51Z</time>
      </trkpt>
      <trkpt lat="31.54352000" lon="34.66287000">
        <ele>71.000000</ele>
        <time>2010-01-01T02:07:58Z</time>
      </trkpt>
      <trkpt lat="31.54342000" lon="34.66299000">
        <ele>71.000000</ele>
        <time>2010-01-01T02:08:04Z</time>
      </trkpt>
      <trkpt lat="31.54315000" lon="34.66320000">
        <ele>73.000000</ele>
        <time>2010-01-01T02:08:17Z</time>
      </trkpt>
      <trkpt lat="31.54309000" lon="34.66334000">
        <ele>73.000000</ele>
        <time>2010-01-01T02:08:22Z</time>
      </trkpt>
      <trkpt lat="31.54299000" lon="34.66342000">
        <ele>74.000000</ele>
        <time>2010-01-01T02:08:27Z</time>
      </trkpt>
      <trkpt lat="31.54259000" lon="34.66361000">
        <ele>74.000000</ele>
        <time>2010-01-01T02:08:44Z</time>
      </trkpt>
      <trkpt lat="31.54243000" lon="34.66371000">
        <ele>73.000000</ele>
        <time>2010-01-01T02:08:52Z</time>
      </trkpt>
      <trkpt lat="31.54231000" lon="34.66381000">
        <ele>73.000000</ele>
        <time>2010-01-01T02:08:58Z</time>
      </trkpt>
      <trkpt lat="31.54214000" lon="34.66390000">
        <ele>74.000000</ele>
        <time>2010-01-01T02:09:05Z</time>
      </trkpt>
      <trkpt lat="31.54209000" lon="34.66396000">
        <ele>74.000000</ele>
        <time>2010-01-01T02:09:08Z</time>
      </trkpt>
      <trkpt lat="31.54204000" lon="34.66413000">
        <ele>75.000000</ele>
        <time>2010-01-01T02:09:14Z</time>
      </trkpt>
      <trkpt lat="31.54179000" lon="34.66444000">
        <ele>76.000000</ele>
        <time>2010-01-01T02:09:29Z</time>
      </trkpt>
      <trkpt lat="31.54169000" lon="34.66450000">
        <ele>77.000000</ele>
        <time>2010-01-01T02:09:33Z</time>
      </trkpt>
      <trkpt lat="31.54136000" lon="34.66462000">
        <ele>79.000000</ele>
        <time>2010-01-01T02:09:47Z</time>
      </trkpt>
      <trkpt lat="31.54114000" lon="34.66461000">
        <ele>79.000000</ele>
        <time>2010-01-01T02:09:56Z</time>
      </trkpt>
      <trkpt lat="31.54101000" lon="34.66453000">
        <ele>77.000000</ele>
        <time>2010-01-01T02:10:02Z</time>
      </trkpt>
      <trkpt lat="31.54087000" lon="34.66440000">
        <ele>76.000000</ele>
        <time>2010-01-01T02:10:09Z</time>
      </trkpt>
      <trkpt lat="31.54069000" lon="34.66436000">
        <ele>74.000000</ele>
        <time>2010-01-01T02:10:16Z</time>
      </trkpt>
      <trkpt lat="31.54055000" lon="34.66437000">
        <ele>73.000000</ele>
        <time>2010-01-01T02:10:22Z</time>
      </trkpt>
      <trkpt lat="31.54039000" lon="34.66445000">
        <ele>73.000000</ele>
        <time>2010-01-01T02:10:29Z</time>
      </trkpt>
      <trkpt lat="31.54032000" lon="34.66449000">
        <ele>73.000000</ele>
        <time>2010-01-01T02:10:32Z</time>
      </trkpt>
      <trkpt lat="31.54021000" lon="34.66451000">
        <ele>73.000000</ele>
        <time>2010-01-01T02:10:36Z</time>
      </trkpt>
      <trkpt lat="31.53972000" lon="34.66476000">
        <ele>75.000000</ele>
        <time>2010-01-01T02:10:58Z</time>
      </trkpt>
      <trkpt lat="31.53944000" lon="34.66485000">
        <ele>76.000000</ele>
        <time>2010-01-01T02:11:09Z</time>
      </trkpt>
      <trkpt lat="31.53911000" lon="34.66485000">
        <ele>77.000000</ele>
        <time>2010-01-01T02:11:22Z</time>
      </trkpt>
      <trkpt lat="31.53901000" lon="34.66488000">
        <ele>77.000000</ele>
        <time>2010-01-01T02:11:27Z</time>
      </trkpt>
      <trkpt lat="31.53858000" lon="34.66510000">
        <ele>77.000000</ele>
        <time>2010-01-01T02:11:45Z</time>
      </trkpt>
      <trkpt lat="31.53826000" lon="34.66517000">
        <ele>76.000000</ele>
        <time>2010-01-01T02:11:58Z</time>
      </trkpt>
      <trkpt lat="31.53772000" lon="34.66543000">
        <ele>78.000000</ele>
        <time>2010-01-01T02:12:22Z</time>
      </trkpt>
      <trkpt lat="31.53762000" lon="34.66543000">
        <ele>79.000000</ele>
        <time>2010-01-01T02:12:26Z</time>
      </trkpt>
      <trkpt lat="31.53737000" lon="34.66550000">
        <ele>80.000000</ele>
        <time>2010-01-01T02:12:36Z</time>
      </trkpt>
      <trkpt lat="31.53716000" lon="34.66543000">
        <ele>81.000000</ele>
        <time>2010-01-01T02:12:45Z</time>
      </trkpt>
      <trkpt lat="31.53684000" lon="34.66543000">
        <ele>80.000000</ele>
        <time>2010-01-01T02:12:58Z</time>
      </trkpt>
      <trkpt lat="31.53673000" lon="34.66539000">
        <ele>81.000000</ele>
        <time>2010-01-01T02:13:02Z</time>
      </trkpt>
      <trkpt lat="31.53669000" lon="34.66523000">
        <ele>81.000000</ele>
        <time>2010-01-01T02:13:08Z</time>
      </trkpt>
      <trkpt lat="31.53659000" lon="34.66465000">
        <ele>81.000000</ele>
        <time>2010-01-01T02:13:28Z</time>
      </trkpt>
      <trkpt lat="31.53647000" lon="34.66456000">
        <ele>81.000000</ele>
        <time>2010-01-01T02:13:34Z</time>
      </trkpt>
      <trkpt lat="31.53569000" lon="34.66483000">
        <ele>83.000000</ele>
        <time>2010-01-01T02:14:06Z</time>
      </trkpt>
      <trkpt lat="31.53527000" lon="34.66509000">
        <ele>83.000000</ele>
        <time>2010-01-01T02:14:25Z</time>
      </trkpt>
      <trkpt lat="31.53499000" lon="34.66511000">
        <ele>84.000000</ele>
        <time>2010-01-01T02:14:37Z</time>
      </trkpt>
      <trkpt lat="31.53473000" lon="34.66509000">
        <ele>85.000000</ele>
        <time>2010-01-01T02:14:47Z</time>
      </trkpt>
      <trkpt lat="31.53442000" lon="34.66501000">
        <ele>88.000000</ele>
        <time>2010-01-01T02:15:00Z</time>
      </trkpt>
      <trkpt lat="31.53414000" lon="34.66491000">
        <ele>91.000000</ele>
        <time>2010-01-01T02:15:11Z</time>
      </trkpt>
      <trkpt lat="31.53401000" lon="34.66484000">
        <ele>93.000000</ele>
        <time>2010-01-01T02:15:17Z</time>
      </trkpt>
      <trkpt lat="31.53396000" lon="34.66478000">
        <ele>94.000000</ele>
        <time>2010-01-01T02:15:20Z</time>
      </trkpt>
      <trkpt lat="31.53394000" lon="34.66470000">
        <ele>95.000000</ele>
        <time>2010-01-01T02:15:23Z</time>
      </trkpt>
      <trkpt lat="31.53393000" lon="34.66430000">
        <ele>95.000000</ele>
        <time>2010-01-01T02:15:36Z</time>
      </trkpt>
      <trkpt lat="31.53392000" lon="34.66430000">
        <ele>95.000000</ele>
        <time>2010-01-01T02:15:37Z</time>
      </trkpt>
      <trkpt lat="31.53390000" lon="34.66411000">
        <ele>95.000000</ele>
        <time>2010-01-01T02:15:43Z</time>
      </trkpt>
      <trkpt lat="31.53385000" lon="34.66400000">
        <ele>95.000000</ele>
        <time>2010-01-01T02:15:48Z</time>
      </trkpt>
      <trkpt lat="31.53334000" lon="34.66369000">
        <ele>95.000000</ele>
        <time>2010-01-01T02:16:11Z</time>
      </trkpt>
      <trkpt lat="31.53323000" lon="34.66370000">
        <ele>96.000000</ele>
        <time>2010-01-01T02:16:15Z</time>
      </trkpt>
      <trkpt lat="31.53303000" lon="34.66378000">
        <ele>98.000000</ele>
        <time>2010-01-01T02:16:24Z</time>
      </trkpt>
      <trkpt lat="31.53292000" lon="34.66390000">
        <ele>99.000000</ele>
        <time>2010-01-01T02:16:30Z</time>
      </trkpt>
      <trkpt lat="31.53287000" lon="34.66401000">
        <ele>100.00000</ele>
        <time>2010-01-01T02:16:34Z</time>
      </trkpt>
      <trkpt lat="31.53285000" lon="34.66426000">
        <ele>100.00000</ele>
        <time>2010-01-01T02:16:42Z</time>
      </trkpt>
      <trkpt lat="31.53281000" lon="34.66437000">
        <ele>100.00000</ele>
        <time>2010-01-01T02:16:46Z</time>
      </trkpt>
      <trkpt lat="31.53273000" lon="34.66446000">
        <ele>101.00000</ele>
        <time>2010-01-01T02:16:51Z</time>
      </trkpt>
      <trkpt lat="31.53260000" lon="34.66454000">
        <ele>101.00000</ele>
        <time>2010-01-01T02:16:57Z</time>
      </trkpt>
      <trkpt lat="31.53246000" lon="34.66459000">
        <ele>101.00000</ele>
        <time>2010-01-01T02:17:03Z</time>
      </trkpt>
      <trkpt lat="31.53239000" lon="34.66458000">
        <ele>101.00000</ele>
        <time>2010-01-01T02:17:05Z</time>
      </trkpt>
      <trkpt lat="31.53233000" lon="34.66455000">
        <ele>102.00000</ele>
        <time>2010-01-01T02:17:08Z</time>
      </trkpt>
      <trkpt lat="31.53227000" lon="34.66449000">
        <ele>103.00000</ele>
        <time>2010-01-01T02:17:11Z</time>
      </trkpt>
      <trkpt lat="31.53165000" lon="34.66350000">
        <ele>103.00000</ele>
        <time>2010-01-01T02:17:53Z</time>
      </trkpt>
      <trkpt lat="31.53156000" lon="34.66344000">
        <ele>102.00000</ele>
        <time>2010-01-01T02:17:57Z</time>
      </trkpt>
      <trkpt lat="31.53142000" lon="34.66357000">
        <ele>102.00000</ele>
        <time>2010-01-01T02:18:04Z</time>
      </trkpt>
      <trkpt lat="31.53124000" lon="34.66371000">
        <ele>101.00000</ele>
        <time>2010-01-01T02:18:13Z</time>
      </trkpt>
      <trkpt lat="31.53116000" lon="34.66379000">
        <ele>101.00000</ele>
        <time>2010-01-01T02:18:17Z</time>
      </trkpt>
      <trkpt lat="31.53113000" lon="34.66387000">
        <ele>101.00000</ele>
        <time>2010-01-01T02:18:20Z</time>
      </trkpt>
      <trkpt lat="31.53107000" lon="34.66420000">
        <ele>102.00000</ele>
        <time>2010-01-01T02:18:32Z</time>
      </trkpt>
      <trkpt lat="31.53103000" lon="34.66436000">
        <ele>101.00000</ele>
        <time>2010-01-01T02:18:37Z</time>
      </trkpt>
      <trkpt lat="31.53071000" lon="34.66487000">
        <ele>100.00000</ele>
        <time>2010-01-01T02:18:59Z</time>
      </trkpt>
      <trkpt lat="31.53049000" lon="34.66516000">
        <ele>102.00000</ele>
        <time>2010-01-01T02:19:12Z</time>
      </trkpt>
      <trkpt lat="31.53040000" lon="34.66539000">
        <ele>101.00000</ele>
        <time>2010-01-01T02:19:21Z</time>
      </trkpt>
      <trkpt lat="31.53036000" lon="34.66545000">
        <ele>101.00000</ele>
        <time>2010-01-01T02:19:24Z</time>
      </trkpt>
      <trkpt lat="31.53027000" lon="34.66553000">
        <ele>102.00000</ele>
        <time>2010-01-01T02:19:28Z</time>
      </trkpt>
      <trkpt lat="31.53017000" lon="34.66554000">
        <ele>102.00000</ele>
        <time>2010-01-01T02:19:32Z</time>
      </trkpt>
      <trkpt lat="31.52996000" lon="34.66547000">
        <ele>102.00000</ele>
        <time>2010-01-01T02:19:41Z</time>
      </trkpt>
      <trkpt lat="31.52985000" lon="34.66545000">
        <ele>103.00000</ele>
        <time>2010-01-01T02:19:45Z</time>
      </trkpt>
      <trkpt lat="31.52960000" lon="34.66547000">
        <ele>105.00000</ele>
        <time>2010-01-01T02:19:55Z</time>
      </trkpt>
      <trkpt lat="31.52927000" lon="34.66548000">
        <ele>106.00000</ele>
        <time>2010-01-01T02:20:09Z</time>
      </trkpt>
      <trkpt lat="31.52913000" lon="34.66550000">
        <ele>106.00000</ele>
        <time>2010-01-01T02:20:14Z</time>
      </trkpt>
      <trkpt lat="31.52889000" lon="34.66559000">
        <ele>104.00000</ele>
        <time>2010-01-01T02:20:24Z</time>
      </trkpt>
      <trkpt lat="31.52883000" lon="34.66563000">
        <ele>105.00000</ele>
        <time>2010-01-01T02:20:27Z</time>
      </trkpt>
      <trkpt lat="31.52878000" lon="34.66569000">
        <ele>105.00000</ele>
        <time>2010-01-01T02:20:30Z</time>
      </trkpt>
      <trkpt lat="31.52869000" lon="34.66588000">
        <ele>106.00000</ele>
        <time>2010-01-01T02:20:37Z</time>
      </trkpt>
      <trkpt lat="31.52852000" lon="34.66604000">
        <ele>107.00000</ele>
        <time>2010-01-01T02:20:46Z</time>
      </trkpt>
      <trkpt lat="31.52845000" lon="34.66607000">
        <ele>107.00000</ele>
        <time>2010-01-01T02:20:49Z</time>
      </trkpt>
      <trkpt lat="31.52838000" lon="34.66608000">
        <ele>107.00000</ele>
        <time>2010-01-01T02:20:52Z</time>
      </trkpt>
      <trkpt lat="31.52832000" lon="34.66604000">
        <ele>107.00000</ele>
        <time>2010-01-01T02:20:55Z</time>
      </trkpt>
      <trkpt lat="31.52804000" lon="34.66577000">
        <ele>107.00000</ele>
        <time>2010-01-01T02:21:09Z</time>
      </trkpt>
      <trkpt lat="31.52790000" lon="34.66558000">
        <ele>107.00000</ele>
        <time>2010-01-01T02:21:18Z</time>
      </trkpt>
      <trkpt lat="31.52783000" lon="34.66553000">
        <ele>107.00000</ele>
        <time>2010-01-01T02:21:21Z</time>
      </trkpt>
      <trkpt lat="31.52773000" lon="34.66550000">
        <ele>107.00000</ele>
        <time>2010-01-01T02:21:25Z</time>
      </trkpt>
      <trkpt lat="31.52760000" lon="34.66557000">
        <ele>108.00000</ele>
        <time>2010-01-01T02:21:31Z</time>
      </trkpt>
      <trkpt lat="31.52754000" lon="34.66575000">
        <ele>109.00000</ele>
        <time>2010-01-01T02:21:37Z</time>
      </trkpt>
      <trkpt lat="31.52741000" lon="34.66560000">
        <ele>110.00000</ele>
        <time>2010-01-01T02:21:45Z</time>
      </trkpt>
      <trkpt lat="31.52737000" lon="34.66552000">
        <ele>110.00000</ele>
        <time>2010-01-01T02:21:48Z</time>
      </trkpt>
      <trkpt lat="31.52726000" lon="34.66512000">
        <ele>112.00000</ele>
        <time>2010-01-01T02:22:02Z</time>
      </trkpt>
      <trkpt lat="31.52723000" lon="34.66479000">
        <ele>112.00000</ele>
        <time>2010-01-01T02:22:14Z</time>
      </trkpt>
      <trkpt lat="31.52720000" lon="34.66471000">
        <ele>113.00000</ele>
        <time>2010-01-01T02:22:17Z</time>
      </trkpt>
      <trkpt lat="31.52713000" lon="34.66470000">
        <ele>113.00000</ele>
        <time>2010-01-01T02:22:19Z</time>
      </trkpt>
      <trkpt lat="31.52699000" lon="34.66474000">
        <ele>113.00000</ele>
        <time>2010-01-01T02:22:25Z</time>
      </trkpt>
      <trkpt lat="31.52685000" lon="34.66474000">
        <ele>112.00000</ele>
        <time>2010-01-01T02:22:31Z</time>
      </trkpt>
      <trkpt lat="31.52671000" lon="34.66469000">
        <ele>113.00000</ele>
        <time>2010-01-01T02:22:37Z</time>
      </trkpt>
      <trkpt lat="31.52656000" lon="34.66459000">
        <ele>114.00000</ele>
        <time>2010-01-01T02:22:43Z</time>
      </trkpt>
      <trkpt lat="31.52636000" lon="34.66449000">
        <ele>114.00000</ele>
        <time>2010-01-01T02:22:52Z</time>
      </trkpt>
      <trkpt lat="31.52618000" lon="34.66449000">
        <ele>114.00000</ele>
        <time>2010-01-01T02:22:59Z</time>
      </trkpt>
      <trkpt lat="31.52608000" lon="34.66450000">
        <ele>114.00000</ele>
        <time>2010-01-01T02:23:03Z</time>
      </trkpt>
      <trkpt lat="31.52581000" lon="34.66461000">
        <ele>115.00000</ele>
        <time>2010-01-01T02:23:15Z</time>
      </trkpt>
      <trkpt lat="31.52563000" lon="34.66462000">
        <ele>116.00000</ele>
        <time>2010-01-01T02:23:22Z</time>
      </trkpt>
      <trkpt lat="31.52540000" lon="34.66474000">
        <ele>116.00000</ele>
        <time>2010-01-01T02:23:32Z</time>
      </trkpt>
      <trkpt lat="31.52526000" lon="34.66475000">
        <ele>116.00000</ele>
        <time>2010-01-01T02:23:38Z</time>
      </trkpt>
      <trkpt lat="31.52515000" lon="34.66473000">
        <ele>116.00000</ele>
        <time>2010-01-01T02:23:42Z</time>
      </trkpt>
      <trkpt lat="31.52503000" lon="34.66464000">
        <ele>117.00000</ele>
        <time>2010-01-01T02:23:48Z</time>
      </trkpt>
      <trkpt lat="31.52483000" lon="34.66425000">
        <ele>117.00000</ele>
        <time>2010-01-01T02:24:03Z</time>
      </trkpt>
      <trkpt lat="31.52473000" lon="34.66413000">
        <ele>117.00000</ele>
        <time>2010-01-01T02:24:09Z</time>
      </trkpt>
      <trkpt lat="31.52461000" lon="34.66404000">
        <ele>116.00000</ele>
        <time>2010-01-01T02:24:15Z</time>
      </trkpt>
      <trkpt lat="31.52451000" lon="34.66391000">
        <ele>115.00000</ele>
        <time>2010-01-01T02:24:21Z</time>
      </trkpt>
      <trkpt lat="31.52419000" lon="34.66340000">
        <ele>118.00000</ele>
        <time>2010-01-01T02:24:42Z</time>
      </trkpt>
      <trkpt lat="31.52414000" lon="34.66335000">
        <ele>118.00000</ele>
        <time>2010-01-01T02:24:45Z</time>
      </trkpt>
      <trkpt lat="31.52401000" lon="34.66329000">
        <ele>117.00000</ele>
        <time>2010-01-01T02:24:51Z</time>
      </trkpt>
      <trkpt lat="31.52373000" lon="34.66337000">
        <ele>116.00000</ele>
        <time>2010-01-01T02:25:02Z</time>
      </trkpt>
      <trkpt lat="31.52362000" lon="34.66337000">
        <ele>116.00000</ele>
        <time>2010-01-01T02:25:07Z</time>
      </trkpt>
      <trkpt lat="31.52356000" lon="34.66333000">
        <ele>115.00000</ele>
        <time>2010-01-01T02:25:09Z</time>
      </trkpt>
      <trkpt lat="31.52345000" lon="34.66333000">
        <ele>115.00000</ele>
        <time>2010-01-01T02:25:14Z</time>
      </trkpt>
      <trkpt lat="31.52334000" lon="34.66343000">
        <ele>116.00000</ele>
        <time>2010-01-01T02:25:19Z</time>
      </trkpt>
      <trkpt lat="31.52329000" lon="34.66350000">
        <ele>116.00000</ele>
        <time>2010-01-01T02:25:22Z</time>
      </trkpt>
      <trkpt lat="31.52319000" lon="34.66368000">
        <ele>117.00000</ele>
        <time>2010-01-01T02:25:30Z</time>
      </trkpt>
      <trkpt lat="31.52311000" lon="34.66375000">
        <ele>118.00000</ele>
        <time>2010-01-01T02:25:34Z</time>
      </trkpt>
      <trkpt lat="31.52307000" lon="34.66375000">
        <ele>118.00000</ele>
        <time>2010-01-01T02:25:35Z</time>
      </trkpt>
      <trkpt lat="31.52301000" lon="34.66372000">
        <ele>117.00000</ele>
        <time>2010-01-01T02:25:38Z</time>
      </trkpt>
      <trkpt lat="31.52288000" lon="34.66352000">
        <ele>117.00000</ele>
        <time>2010-01-01T02:25:47Z</time>
      </trkpt>
      <trkpt lat="31.52283000" lon="34.66346000">
        <ele>117.00000</ele>
        <time>2010-01-01T02:25:49Z</time>
      </trkpt>
      <trkpt lat="31.52272000" lon="34.66346000">
        <ele>117.00000</ele>
        <time>2010-01-01T02:25:54Z</time>
      </trkpt>
      <trkpt lat="31.52259000" lon="34.66353000">
        <ele>118.00000</ele>
        <time>2010-01-01T02:26:00Z</time>
      </trkpt>
      <trkpt lat="31.52247000" lon="34.66363000">
        <ele>120.00000</ele>
        <time>2010-01-01T02:26:05Z</time>
      </trkpt>
      <trkpt lat="31.52231000" lon="34.66386000">
        <ele>122.00000</ele>
        <time>2010-01-01T02:26:16Z</time>
      </trkpt>
      <trkpt lat="31.52221000" lon="34.66409000">
        <ele>122.00000</ele>
        <time>2010-01-01T02:26:24Z</time>
      </trkpt>
      <trkpt lat="31.52216000" lon="34.66442000">
        <ele>123.00000</ele>
        <time>2010-01-01T02:26:36Z</time>
      </trkpt>
      <trkpt lat="31.52215000" lon="34.66480000">
        <ele>126.00000</ele>
        <time>2010-01-01T02:26:49Z</time>
      </trkpt>
      <trkpt lat="31.52213000" lon="34.66488000">
        <ele>126.00000</ele>
        <time>2010-01-01T02:26:52Z</time>
      </trkpt>
      <trkpt lat="31.52209000" lon="34.66492000">
        <ele>126.00000</ele>
        <time>2010-01-01T02:26:54Z</time>
      </trkpt>
      <trkpt lat="31.52191000" lon="34.66500000">
        <ele>126.00000</ele>
        <time>2010-01-01T02:27:01Z</time>
      </trkpt>
      <trkpt lat="31.52184000" lon="34.66501000">
        <ele>126.00000</ele>
        <time>2010-01-01T02:27:04Z</time>
      </trkpt>
      <trkpt lat="31.52178000" lon="34.66506000">
        <ele>126.00000</ele>
        <time>2010-01-01T02:27:07Z</time>
      </trkpt>
      <trkpt lat="31.52176000" lon="34.66514000">
        <ele>127.00000</ele>
        <time>2010-01-01T02:27:10Z</time>
      </trkpt>
      <trkpt lat="31.52179000" lon="34.66521000">
        <ele>127.00000</ele>
        <time>2010-01-01T02:27:13Z</time>
      </trkpt>
      <trkpt lat="31.52204000" lon="34.66538000">
        <ele>126.00000</ele>
        <time>2010-01-01T02:27:24Z</time>
      </trkpt>
      <trkpt lat="31.52208000" lon="34.66544000">
        <ele>126.00000</ele>
        <time>2010-01-01T02:27:27Z</time>
      </trkpt>
      <trkpt lat="31.52210000" lon="34.66552000">
        <ele>126.00000</ele>
        <time>2010-01-01T02:27:30Z</time>
      </trkpt>
      <trkpt lat="31.52209000" lon="34.66561000">
        <ele>125.00000</ele>
        <time>2010-01-01T02:27:33Z</time>
      </trkpt>
      <trkpt lat="31.52200000" lon="34.66584000">
        <ele>124.00000</ele>
        <time>2010-01-01T02:27:42Z</time>
      </trkpt>
      <trkpt lat="31.52183000" lon="34.66648000">
        <ele>120.00000</ele>
        <time>2010-01-01T02:28:04Z</time>
      </trkpt>
      <trkpt lat="31.52176000" lon="34.66662000">
        <ele>121.00000</ele>
        <time>2010-01-01T02:28:10Z</time>
      </trkpt>
      <trkpt lat="31.52166000" lon="34.66668000">
        <ele>122.00000</ele>
        <time>2010-01-01T02:28:14Z</time>
      </trkpt>
      <trkpt lat="31.52145000" lon="34.66667000">
        <ele>122.00000</ele>
        <time>2010-01-01T02:28:23Z</time>
      </trkpt>
      <trkpt lat="31.52138000" lon="34.66664000">
        <ele>122.00000</ele>
        <time>2010-01-01T02:28:26Z</time>
      </trkpt>
      <trkpt lat="31.52106000" lon="34.66663000">
        <ele>122.00000</ele>
        <time>2010-01-01T02:28:39Z</time>
      </trkpt>
      <trkpt lat="31.52095000" lon="34.66660000">
        <ele>122.00000</ele>
        <time>2010-01-01T02:28:43Z</time>
      </trkpt>
      <trkpt lat="31.52048000" lon="34.66659000">
        <ele>120.00000</ele>
        <time>2010-01-01T02:29:02Z</time>
      </trkpt>
      <trkpt lat="31.52021000" lon="34.66650000">
        <ele>118.00000</ele>
        <time>2010-01-01T02:29:13Z</time>
      </trkpt>
      <trkpt lat="31.51998000" lon="34.66638000">
        <ele>117.00000</ele>
        <time>2010-01-01T02:29:23Z</time>
      </trkpt>
      <trkpt lat="31.51991000" lon="34.66637000">
        <ele>117.00000</ele>
        <time>2010-01-01T02:29:26Z</time>
      </trkpt>
      <trkpt lat="31.51945000" lon="34.66617000">
        <ele>114.00000</ele>
        <time>2010-01-01T02:29:46Z</time>
      </trkpt>
      <trkpt lat="31.51927000" lon="34.66616000">
        <ele>113.00000</ele>
        <time>2010-01-01T02:29:53Z</time>
      </trkpt>
      <trkpt lat="31.51913000" lon="34.66612000">
        <ele>112.00000</ele>
        <time>2010-01-01T02:29:59Z</time>
      </trkpt>
      <trkpt lat="31.51902000" lon="34.66612000">
        <ele>112.00000</ele>
        <time>2010-01-01T02:30:03Z</time>
      </trkpt>
      <trkpt lat="31.51892000" lon="34.66616000">
        <ele>112.00000</ele>
        <time>2010-01-01T02:30:07Z</time>
      </trkpt>
      <trkpt lat="31.51877000" lon="34.66614000">
        <ele>112.00000</ele>
        <time>2010-01-01T02:30:13Z</time>
      </trkpt>
      <trkpt lat="31.51856000" lon="34.66618000">
        <ele>112.00000</ele>
        <time>2010-01-01T02:30:22Z</time>
      </trkpt>
      <trkpt lat="31.51846000" lon="34.66622000">
        <ele>112.00000</ele>
        <time>2010-01-01T02:30:26Z</time>
      </trkpt>
      <trkpt lat="31.51825000" lon="34.66637000">
        <ele>111.00000</ele>
        <time>2010-01-01T02:30:36Z</time>
      </trkpt>
      <trkpt lat="31.51809000" lon="34.66645000">
        <ele>110.00000</ele>
        <time>2010-01-01T02:30:43Z</time>
      </trkpt>
      <trkpt lat="31.51750000" lon="34.66604000">
        <ele>107.00000</ele>
        <time>2010-01-01T02:31:10Z</time>
      </trkpt>
      <trkpt lat="31.51720000" lon="34.66591000">
        <ele>108.00000</ele>
        <time>2010-01-01T02:31:23Z</time>
      </trkpt>
      <trkpt lat="31.51705000" lon="34.66591000">
        <ele>108.00000</ele>
        <time>2010-01-01T02:31:29Z</time>
      </trkpt>
      <trkpt lat="31.51699000" lon="34.66594000">
        <ele>108.00000</ele>
        <time>2010-01-01T02:31:32Z</time>
      </trkpt>
      <trkpt lat="31.51692000" lon="34.66595000">
        <ele>109.00000</ele>
        <time>2010-01-01T02:31:35Z</time>
      </trkpt>
      <trkpt lat="31.51682000" lon="34.66582000">
        <ele>108.00000</ele>
        <time>2010-01-01T02:31:41Z</time>
      </trkpt>
      <trkpt lat="31.51674000" lon="34.66574000">
        <ele>108.00000</ele>
        <time>2010-01-01T02:31:45Z</time>
      </trkpt>
      <trkpt lat="31.51629000" lon="34.66548000">
        <ele>106.00000</ele>
        <time>2010-01-01T02:32:05Z</time>
      </trkpt>
      <trkpt lat="31.51594000" lon="34.66539000">
        <ele>108.00000</ele>
        <time>2010-01-01T02:32:19Z</time>
      </trkpt>
      <trkpt lat="31.51576000" lon="34.66539000">
        <ele>109.00000</ele>
        <time>2010-01-01T02:32:26Z</time>
      </trkpt>
      <trkpt lat="31.51572000" lon="34.66540000">
        <ele>109.00000</ele>
        <time>2010-01-01T02:32:28Z</time>
      </trkpt>
      <trkpt lat="31.51563000" lon="34.66545000">
        <ele>109.00000</ele>
        <time>2010-01-01T02:32:32Z</time>
      </trkpt>
      <trkpt lat="31.51549000" lon="34.66559000">
        <ele>109.00000</ele>
        <time>2010-01-01T02:32:39Z</time>
      </trkpt>
      <trkpt lat="31.51540000" lon="34.66564000">
        <ele>109.00000</ele>
        <time>2010-01-01T02:32:43Z</time>
      </trkpt>
      <trkpt lat="31.51532000" lon="34.66564000">
        <ele>109.00000</ele>
        <time>2010-01-01T02:32:47Z</time>
      </trkpt>
      <trkpt lat="31.51522000" lon="34.66561000">
        <ele>109.00000</ele>
        <time>2010-01-01T02:32:51Z</time>
      </trkpt>
      <trkpt lat="31.51508000" lon="34.66561000">
        <ele>109.00000</ele>
        <time>2010-01-01T02:32:56Z</time>
      </trkpt>
      <trkpt lat="31.51488000" lon="34.66569000">
        <ele>109.00000</ele>
        <time>2010-01-01T02:33:05Z</time>
      </trkpt>
      <trkpt lat="31.51478000" lon="34.66575000">
        <ele>110.00000</ele>
        <time>2010-01-01T02:33:09Z</time>
      </trkpt>
      <trkpt lat="31.51460000" lon="34.66594000">
        <ele>113.00000</ele>
        <time>2010-01-01T02:33:19Z</time>
      </trkpt>
      <trkpt lat="31.51434000" lon="34.66608000">
        <ele>116.00000</ele>
        <time>2010-01-01T02:33:30Z</time>
      </trkpt>
      <trkpt lat="31.51411000" lon="34.66628000">
        <ele>118.00000</ele>
        <time>2010-01-01T02:33:42Z</time>
      </trkpt>
      <trkpt lat="31.51402000" lon="34.66639000">
        <ele>119.00000</ele>
        <time>2010-01-01T02:33:47Z</time>
      </trkpt>
      <trkpt lat="31.51392000" lon="34.66663000">
        <ele>119.00000</ele>
        <time>2010-01-01T02:33:56Z</time>
      </trkpt>
      <trkpt lat="31.51389000" lon="34.66680000">
        <ele>119.00000</ele>
        <time>2010-01-01T02:34:02Z</time>
      </trkpt>
      <trkpt lat="31.51384000" lon="34.66696000">
        <ele>120.00000</ele>
        <time>2010-01-01T02:34:08Z</time>
      </trkpt>
      <trkpt lat="31.51377000" lon="34.66705000">
        <ele>120.00000</ele>
        <time>2010-01-01T02:34:12Z</time>
      </trkpt>
      <trkpt lat="31.51374000" lon="34.66705000">
        <ele>120.00000</ele>
        <time>2010-01-01T02:34:13Z</time>
      </trkpt>
      <trkpt lat="31.51370000" lon="34.66702000">
        <ele>120.00000</ele>
        <time>2010-01-01T02:34:15Z</time>
      </trkpt>
      <trkpt lat="31.51370000" lon="34.66701000">
        <ele>120.00000</ele>
        <time>2010-01-01T02:34:16Z</time>
      </trkpt>
      <trkpt lat="31.51360000" lon="34.66692000">
        <ele>119.00000</ele>
        <time>2010-01-01T02:34:21Z</time>
      </trkpt>
      <trkpt lat="31.51355000" lon="34.66676000">
        <ele>119.00000</ele>
        <time>2010-01-01T02:34:26Z</time>
      </trkpt>
      <trkpt lat="31.51351000" lon="34.66670000">
        <ele>119.00000</ele>
        <time>2010-01-01T02:34:29Z</time>
      </trkpt>
      <trkpt lat="31.51335000" lon="34.66659000">
        <ele>120.00000</ele>
        <time>2010-01-01T02:34:36Z</time>
      </trkpt>
      <trkpt lat="31.51310000" lon="34.66624000">
        <ele>123.00000</ele>
        <time>2010-01-01T02:34:52Z</time>
      </trkpt>
      <trkpt lat="31.51288000" lon="34.66611000">
        <ele>125.00000</ele>
        <time>2010-01-01T02:35:02Z</time>
      </trkpt>
      <trkpt lat="31.51277000" lon="34.66608000">
        <ele>125.00000</ele>
        <time>2010-01-01T02:35:06Z</time>
      </trkpt>
      <trkpt lat="31.51256000" lon="34.66608000">
        <ele>123.00000</ele>
        <time>2010-01-01T02:35:15Z</time>
      </trkpt>
      <trkpt lat="31.51221000" lon="34.66629000">
        <ele>122.00000</ele>
        <time>2010-01-01T02:35:31Z</time>
      </trkpt>
      <trkpt lat="31.51199000" lon="34.66629000">
        <ele>122.00000</ele>
        <time>2010-01-01T02:35:39Z</time>
      </trkpt>
      <trkpt lat="31.51189000" lon="34.66625000">
        <ele>121.00000</ele>
        <time>2010-01-01T02:35:44Z</time>
      </trkpt>
      <trkpt lat="31.51182000" lon="34.66629000">
        <ele>121.00000</ele>
        <time>2010-01-01T02:35:47Z</time>
      </trkpt>
      <trkpt lat="31.51172000" lon="34.66629000">
        <ele>120.00000</ele>
        <time>2010-01-01T02:35:51Z</time>
      </trkpt>
      <trkpt lat="31.51134000" lon="34.66616000">
        <ele>117.00000</ele>
        <time>2010-01-01T02:36:07Z</time>
      </trkpt>
      <trkpt lat="31.51101000" lon="34.66602000">
        <ele>115.00000</ele>
        <time>2010-01-01T02:36:21Z</time>
      </trkpt>
      <trkpt lat="31.51082000" lon="34.66590000">
        <ele>113.00000</ele>
        <time>2010-01-01T02:36:29Z</time>
      </trkpt>
      <trkpt lat="31.51072000" lon="34.66578000">
        <ele>112.00000</ele>
        <time>2010-01-01T02:36:35Z</time>
      </trkpt>
      <trkpt lat="31.51054000" lon="34.66565000">
        <ele>111.00000</ele>
        <time>2010-01-01T02:36:43Z</time>
      </trkpt>
      <trkpt lat="31.51017000" lon="34.66551000">
        <ele>111.00000</ele>
        <time>2010-01-01T02:36:59Z</time>
      </trkpt>
      <trkpt lat="31.51004000" lon="34.66543000">
        <ele>111.00000</ele>
        <time>2010-01-01T02:37:05Z</time>
      </trkpt>
      <trkpt lat="31.50990000" lon="34.66524000">
        <ele>112.00000</ele>
        <time>2010-01-01T02:37:13Z</time>
      </trkpt>
      <trkpt lat="31.50981000" lon="34.66518000">
        <ele>111.00000</ele>
        <time>2010-01-01T02:37:18Z</time>
      </trkpt>
      <trkpt lat="31.50959000" lon="34.66517000">
        <ele>110.00000</ele>
        <time>2010-01-01T02:37:26Z</time>
      </trkpt>
      <trkpt lat="31.50942000" lon="34.66512000">
        <ele>108.00000</ele>
        <time>2010-01-01T02:37:33Z</time>
      </trkpt>
      <trkpt lat="31.50925000" lon="34.66505000">
        <ele>107.00000</ele>
        <time>2010-01-01T02:37:41Z</time>
      </trkpt>
      <trkpt lat="31.50889000" lon="34.66504000">
        <ele>106.00000</ele>
        <time>2010-01-01T02:37:55Z</time>
      </trkpt>
      <trkpt lat="31.50876000" lon="34.66489000">
        <ele>104.00000</ele>
        <time>2010-01-01T02:38:02Z</time>
      </trkpt>
      <trkpt lat="31.50870000" lon="34.66485000">
        <ele>104.00000</ele>
        <time>2010-01-01T02:38:05Z</time>
      </trkpt>
      <trkpt lat="31.50866000" lon="34.66475000">
        <ele>103.00000</ele>
        <time>2010-01-01T02:38:09Z</time>
      </trkpt>
      <trkpt lat="31.50865000" lon="34.66475000">
        <ele>103.00000</ele>
        <time>2010-01-01T02:38:09Z</time>
      </trkpt>
      <trkpt lat="31.50863000" lon="34.66470000">
        <ele>103.00000</ele>
        <time>2010-01-01T02:38:11Z</time>
      </trkpt>
      <trkpt lat="31.50861000" lon="34.66454000">
        <ele>103.00000</ele>
        <time>2010-01-01T02:38:17Z</time>
      </trkpt>
      <trkpt lat="31.50865000" lon="34.66409000">
        <ele>104.00000</ele>
        <time>2010-01-01T02:38:32Z</time>
      </trkpt>
      <trkpt lat="31.50878000" lon="34.66345000">
        <ele>108.00000</ele>
        <time>2010-01-01T02:38:55Z</time>
      </trkpt>
      <trkpt lat="31.50900000" lon="34.66320000">
        <ele>108.00000</ele>
        <time>2010-01-01T02:39:07Z</time>
      </trkpt>
      <trkpt lat="31.50907000" lon="34.66294000">
        <ele>106.00000</ele>
        <time>2010-01-01T02:39:16Z</time>
      </trkpt>
      <trkpt lat="31.50908000" lon="34.66269000">
        <ele>105.00000</ele>
        <time>2010-01-01T02:39:25Z</time>
      </trkpt>
      <trkpt lat="31.50896000" lon="34.66203000">
        <ele>105.00000</ele>
        <time>2010-01-01T02:39:48Z</time>
      </trkpt>
      <trkpt lat="31.50895000" lon="34.66183000">
        <ele>105.00000</ele>
        <time>2010-01-01T02:39:55Z</time>
      </trkpt>
      <trkpt lat="31.50901000" lon="34.66159000">
        <ele>105.00000</ele>
        <time>2010-01-01T02:40:03Z</time>
      </trkpt>
      <trkpt lat="31.50953000" lon="34.66072000">
        <ele>104.00000</ele>
        <time>2010-01-01T02:40:39Z</time>
      </trkpt>
      <trkpt lat="31.50986000" lon="34.65971000">
        <ele>99.000000</ele>
        <time>2010-01-01T02:41:16Z</time>
      </trkpt>
      <trkpt lat="31.50999000" lon="34.65831000">
        <ele>101.00000</ele>
        <time>2010-01-01T02:42:04Z</time>
      </trkpt>
      <trkpt lat="31.50990000" lon="34.65799000">
        <ele>100.00000</ele>
        <time>2010-01-01T02:42:16Z</time>
      </trkpt>
      <trkpt lat="31.50982000" lon="34.65781000">
        <ele>100.00000</ele>
        <time>2010-01-01T02:42:23Z</time>
      </trkpt>
      <trkpt lat="31.50968000" lon="34.65768000">
        <ele>99.000000</ele>
        <time>2010-01-01T02:42:30Z</time>
      </trkpt>
      <trkpt lat="31.50955000" lon="34.65746000">
        <ele>99.000000</ele>
        <time>2010-01-01T02:42:39Z</time>
      </trkpt>
      <trkpt lat="31.50964000" lon="34.65640000">
        <ele>99.000000</ele>
        <time>2010-01-01T02:43:15Z</time>
      </trkpt>
      <trkpt lat="31.50964000" lon="34.65529000">
        <ele>98.000000</ele>
        <time>2010-01-01T02:43:53Z</time>
      </trkpt>
      <trkpt lat="31.50958000" lon="34.65486000">
        <ele>98.000000</ele>
        <time>2010-01-01T02:44:08Z</time>
      </trkpt>
      <trkpt lat="31.50958000" lon="34.65415000">
        <ele>99.000000</ele>
        <time>2010-01-01T02:44:32Z</time>
      </trkpt>
      <trkpt lat="31.50980000" lon="34.65340000">
        <ele>96.000000</ele>
        <time>2010-01-01T02:44:59Z</time>
      </trkpt>
      <trkpt lat="31.50983000" lon="34.65325000">
        <ele>96.000000</ele>
        <time>2010-01-01T02:45:05Z</time>
      </trkpt>
      <trkpt lat="31.50988000" lon="34.65296000">
        <ele>96.000000</ele>
        <time>2010-01-01T02:45:15Z</time>
      </trkpt>
      <trkpt lat="31.50991000" lon="34.65252000">
        <ele>96.000000</ele>
        <time>2010-01-01T02:45:30Z</time>
      </trkpt>
      <trkpt lat="31.51007000" lon="34.65216000">
        <ele>99.000000</ele>
        <time>2010-01-01T02:45:44Z</time>
      </trkpt>
      <trkpt lat="31.51018000" lon="34.65200000">
        <ele>100.00000</ele>
        <time>2010-01-01T02:45:51Z</time>
      </trkpt>
      <trkpt lat="31.51030000" lon="34.65187000">
        <ele>100.00000</ele>
        <time>2010-01-01T02:45:57Z</time>
      </trkpt>
      <trkpt lat="31.51090000" lon="34.65190000">
        <ele>95.000000</ele>
        <time>2010-01-01T02:46:21Z</time>
      </trkpt>
      <trkpt lat="31.51134000" lon="34.65134000">
        <ele>96.000000</ele>
        <time>2010-01-01T02:46:47Z</time>
      </trkpt>
      <trkpt lat="31.51143000" lon="34.65037000">
        <ele>95.000000</ele>
        <time>2010-01-01T02:47:21Z</time>
      </trkpt>
      <trkpt lat="31.51158000" lon="34.64971000">
        <ele>93.000000</ele>
        <time>2010-01-01T02:47:44Z</time>
      </trkpt>
      <trkpt lat="31.51150030" lon="34.64945190">
        <ele>94.000000</ele>
        <time>2010-01-01T02:47:53Z</time>
      </trkpt>
      <trkpt lat="31.51139970" lon="34.64937680">
        <ele>95.000000</ele>
        <time>2010-01-01T02:47:58Z</time>
      </trkpt>
      <trkpt lat="31.51109000" lon="34.64918000">
        <ele>96.000000</ele>
        <time>2010-01-01T02:48:12Z</time>
      </trkpt>
      <trkpt lat="31.51096000" lon="34.64910000">
        <ele>96.000000</ele>
        <time>2010-01-01T02:48:18Z</time>
      </trkpt>
      <trkpt lat="31.51119000" lon="34.64851000">
        <ele>97.000000</ele>
        <time>2010-01-01T02:48:40Z</time>
      </trkpt>
      <trkpt lat="31.51101000" lon="34.64842000">
        <ele>97.000000</ele>
        <time>2010-01-01T02:48:48Z</time>
      </trkpt>
      <trkpt lat="31.51025000" lon="34.64822000">
        <ele>96.000000</ele>
        <time>2010-01-01T02:49:19Z</time>
      </trkpt>
    </trkseg>
  </trk>
</gpx>

